DAL1296 EDDF-KATL

Flight info

Callsign DAL1296
Flight time 9h 24m
Altitude 38000
Route OBOKA5G/25C OBOKA Z29 TORNU DCT BATAK DCT GALSO Q63 ERING L179 UGBET Q60 OKSAW DCT BIBPE DCT FELCA DCT FADZU DCT OFSOX DCT SLANY DCT TOBOR/M085F390 DCT 53N020W 53N030W 5230N04000W 50N050W DCT ELSIR/N0479F400 N404E EBONY DCT ENE DCT BAF Q448 PTW J48 MOL DCT FLASK OZZZI2
Aircraft A359/H-SDE2E3GHIJ3J4J5LM1ORWXY/LB1D1

Departure

Time 2026-05-06 17:54
Airport Frankfurt Main Airport (EDDF)

Arrival

Time 2026-05-07 03:18
Airport Hartsfield Jackson Atlanta International Airport (KATL)
Time Latitude Longitude Altitude Speed Heading
2026-05-06 17:07 50.05136 8.59087 352 ft 0 kts 340°
2026-05-06 17:36 50.05116 8.59098 355 ft 4 kts 339°
2026-05-06 17:37 50.05096 8.59120 361 ft 4 kts 295°
2026-05-06 17:37 50.05091 8.59158 361 ft 4 kts 262°
2026-05-06 17:37 50.05095 8.59184 358 ft 1 kts 250°
2026-05-06 17:37 50.05096 8.59188 360 ft 0 kts 250°
2026-05-06 17:45 50.05095 8.59185 352 ft 2 kts 250°
2026-05-06 17:45 50.05080 8.59129 361 ft 9 kts 241°
2026-05-06 17:46 50.05035 8.59022 361 ft 15 kts 246°
2026-05-06 17:46 50.04997 8.58869 357 ft 9 kts 249°
2026-05-06 17:46 50.04995 8.58861 356 ft 0 kts 249°
2026-05-06 17:47 50.04992 8.58846 356 ft 6 kts 249°
2026-05-06 17:47 50.04969 8.58752 360 ft 11 kts 249°
2026-05-06 17:47 50.04926 8.58685 360 ft 8 kts 198°
2026-05-06 17:48 50.04870 8.58697 360 ft 9 kts 162°
2026-05-06 17:48 50.04844 8.58712 357 ft 0 kts 160°
2026-05-06 17:49 50.04842 8.58713 357 ft 4 kts 160°
2026-05-06 17:49 50.04821 8.58724 361 ft 0 kts 160°
2026-05-06 17:51 50.04752 8.58758 356 ft 14 kts 171°
2026-05-06 17:51 50.04656 8.58755 357 ft 14 kts 189°
2026-05-06 17:51 50.04565 8.58693 360 ft 15 kts 211°
2026-05-06 17:52 50.04495 8.58612 360 ft 12 kts 232°
2026-05-06 17:52 50.04477 8.58548 359 ft 0 kts 249°
2026-05-06 17:53 50.04474 8.58537 359 ft 9 kts 249°
2026-05-06 17:53 50.04379 8.58142 358 ft 70 kts 249°
2026-05-06 17:53 50.04144 8.57157 359 ft 123 kts 250°
2026-05-06 17:54 50.03790 8.55679 372 ft 167 kts 251°
2026-05-06 17:54 50.03384 8.53989 914 ft 165 kts 251°
2026-05-06 17:54 50.02973 8.52309 1511 ft 167 kts 252°
2026-05-06 17:54 50.02571 8.50595 2047 ft 173 kts 255°
2026-05-06 17:55 50.02560 8.48665 2364 ft 188 kts 280°
2026-05-06 17:55 50.02780 8.46560 2733 ft 204 kts 280°
2026-05-06 17:55 50.02911 8.44290 3122 ft 220 kts 267°
2026-05-06 17:55 50.02725 8.41809 3444 ft 240 kts 261°
2026-05-06 17:56 50.02424 8.39215 3977 ft 247 kts 259°
2026-05-06 17:56 50.02104 8.36573 4618 ft 250 kts 259°
2026-05-06 17:56 50.01786 8.33947 5310 ft 251 kts 258°
2026-05-06 17:56 50.01462 8.31250 5964 ft 255 kts 258°
2026-05-06 17:57 50.01335 8.28481 6614 ft 260 kts 274°
2026-05-06 17:57 50.01606 8.26653 7058 ft 264 kts 288°
2026-05-06 17:57 50.02324 8.24002 7733 ft 268 kts 292°
2026-05-06 17:57 50.03117 8.21351 8470 ft 271 kts 292°
2026-05-06 17:58 50.03912 8.18687 9212 ft 273 kts 292°
2026-05-06 17:58 50.04709 8.15985 9906 ft 276 kts 292°
2026-05-06 17:58 50.05536 8.13204 10302 ft 292 kts 294°
2026-05-06 17:58 50.06671 8.10451 10611 ft 312 kts 305°
2026-05-06 17:59 50.08055 8.07728 10900 ft 330 kts 307°
2026-05-06 17:59 50.09538 8.04883 11183 ft 346 kts 307°
2026-05-06 17:59 50.11086 8.01906 11591 ft 357 kts 307°
2026-05-06 17:59 50.12659 7.98864 12181 ft 363 kts 307°
2026-05-06 18:00 50.14252 7.95778 12664 ft 366 kts 307°
2026-05-06 18:00 50.15852 7.92669 12818 ft 368 kts 307°
2026-05-06 18:00 50.17456 7.89544 12826 ft 369 kts 307°
2026-05-06 18:00 50.19071 7.86390 12827 ft 370 kts 307°
2026-05-06 18:01 50.20676 7.83252 12828 ft 370 kts 307°
2026-05-06 18:01 50.22259 7.80153 12829 ft 369 kts 306°
2026-05-06 18:01 50.23863 7.77026 12825 ft 368 kts 307°
2026-05-06 18:01 50.25671 7.74198 12827 ft 370 kts 320°
2026-05-06 18:02 50.27890 7.72131 12839 ft 373 kts 332°
2026-05-06 18:02 50.30259 7.70471 12834 ft 374 kts 334°
2026-05-06 18:02 50.32650 7.68859 12891 ft 375 kts 334°
2026-05-06 18:02 50.35058 7.67231 13430 ft 378 kts 334°
2026-05-06 18:03 50.37481 7.65585 14105 ft 379 kts 334°
2026-05-06 18:03 50.39879 7.63948 14709 ft 382 kts 334°
2026-05-06 18:03 50.42323 7.62272 15277 ft 385 kts 333°
2026-05-06 18:03 50.44785 7.60576 15852 ft 388 kts 333°
2026-05-06 18:04 50.47277 7.58860 16413 ft 391 kts 333°
2026-05-06 18:04 50.49785 7.57128 16974 ft 394 kts 333°
2026-05-06 18:04 50.52309 7.55385 17532 ft 398 kts 333°
2026-05-06 18:04 50.54854 7.53605 18114 ft 401 kts 332°
2026-05-06 18:05 50.57290 7.51462 18621 ft 402 kts 325°
2026-05-06 18:05 50.59651 7.49081 19156 ft 404 kts 324°
2026-05-06 18:05 50.61987 7.46679 19667 ft 407 kts 324°
2026-05-06 18:05 50.64367 7.44229 20261 ft 409 kts 326°
2026-05-06 18:06 50.66765 7.41765 20778 ft 413 kts 326°
2026-05-06 18:06 50.69183 7.39278 21283 ft 417 kts 325°
2026-05-06 18:06 50.71617 7.36740 21771 ft 420 kts 323°
2026-05-06 18:06 50.73866 7.33759 22240 ft 422 kts 312°
2026-05-06 18:07 50.75669 7.30094 22747 ft 424 kts 301°
2026-05-06 18:07 50.77174 7.26074 23228 ft 427 kts 297°
2026-05-06 18:07 50.78567 7.21907 23689 ft 430 kts 296°
2026-05-06 18:07 50.79892 7.17723 24108 ft 432 kts 295°
2026-05-06 18:08 50.81231 7.13434 24547 ft 435 kts 295°
2026-05-06 18:08 50.82579 7.09132 24972 ft 438 kts 295°
2026-05-06 18:08 50.83949 7.04802 25402 ft 440 kts 295°
2026-05-06 18:08 50.85338 7.00458 25776 ft 444 kts 296°
2026-05-06 18:09 50.86741 6.96094 26288 ft 444 kts 296°
2026-05-06 18:09 50.88156 6.91711 26734 ft 447 kts 296°
2026-05-06 18:09 50.89579 6.87292 27044 ft 452 kts 296°
2026-05-06 18:09 50.91007 6.82848 27510 ft 453 kts 296°
2026-05-06 18:10 50.92440 6.78376 27877 ft 457 kts 296°
2026-05-06 18:10 50.93881 6.73871 28265 ft 459 kts 296°
2026-05-06 18:10 50.95325 6.69351 28704 ft 461 kts 295°
2026-05-06 18:10 50.96776 6.64796 29043 ft 464 kts 295°
2026-05-06 18:11 50.98217 6.60268 29379 ft 467 kts 295°
2026-05-06 18:11 50.99685 6.55646 29647 ft 471 kts 295°
2026-05-06 18:11 51.01166 6.50973 29966 ft 474 kts 295°
2026-05-06 18:11 51.02648 6.46287 30278 ft 476 kts 295°
2026-05-06 18:12 51.04136 6.41571 30569 ft 477 kts 295°
2026-05-06 18:12 51.05626 6.36843 30846 ft 479 kts 295°
2026-05-06 18:12 51.07128 6.32066 31113 ft 481 kts 295°
2026-05-06 18:12 51.08618 6.27322 31369 ft 483 kts 295°
2026-05-06 18:13 51.10117 6.22535 31664 ft 483 kts 295°
2026-05-06 18:13 51.11614 6.17750 32057 ft 482 kts 295°
2026-05-06 18:13 51.13078 6.12963 32420 ft 480 kts 292°
2026-05-06 18:13 51.14231 6.08055 32767 ft 478 kts 285°
2026-05-06 18:14 51.15165 6.02975 33107 ft 476 kts 284°
2026-05-06 18:14 51.16035 5.97876 33449 ft 475 kts 283°
2026-05-06 18:14 51.16866 5.92781 33770 ft 475 kts 283°
2026-05-06 18:14 51.17712 5.87708 34042 ft 474 kts 285°
2026-05-06 18:15 51.18869 5.82759 34271 ft 476 kts 293°
2026-05-06 18:15 51.20372 5.78109 34487 ft 477 kts 297°
2026-05-06 18:15 51.22012 5.73510 34694 ft 477 kts 298°
2026-05-06 18:15 51.23707 5.68949 34921 ft 477 kts 299°
2026-05-06 18:16 51.25422 5.64420 35125 ft 477 kts 300°
2026-05-06 18:16 51.27148 5.59884 35313 ft 478 kts 300°
2026-05-06 18:16 51.28871 5.55346 35502 ft 478 kts 299°
2026-05-06 18:16 51.30587 5.50802 35700 ft 478 kts 299°
2026-05-06 18:17 51.32298 5.46245 35868 ft 478 kts 299°
2026-05-06 18:17 51.34004 5.41683 36054 ft 478 kts 299°
2026-05-06 18:17 51.35708 5.37110 36239 ft 478 kts 299°
2026-05-06 18:17 51.37409 5.32534 36386 ft 478 kts 299°
2026-05-06 18:18 51.39109 5.27951 36546 ft 479 kts 299°
2026-05-06 18:18 51.40807 5.23363 36729 ft 478 kts 299°
2026-05-06 18:18 51.42503 5.18776 36903 ft 478 kts 299°
2026-05-06 18:18 51.44197 5.14185 37060 ft 478 kts 299°
2026-05-06 18:19 51.45888 5.09597 37176 ft 478 kts 299°
2026-05-06 18:19 51.47577 5.05005 37383 ft 477 kts 299°
2026-05-06 18:19 51.49260 5.00421 37561 ft 476 kts 298°
2026-05-06 18:19 51.50941 4.95836 37683 ft 477 kts 298°
2026-05-06 18:20 51.52622 4.91240 37791 ft 477 kts 298°
2026-05-06 18:20 51.54301 4.86642 37883 ft 478 kts 298°
2026-05-06 18:20 51.57076 4.76942 37912 ft 479 kts 285°
2026-05-06 18:21 51.58491 4.66570 37916 ft 478 kts 279°
2026-05-06 18:21 51.59608 4.56040 37914 ft 478 kts 278°
2026-05-06 18:22 51.60673 4.45476 37917 ft 477 kts 278°
2026-05-06 18:22 51.61747 4.34932 37914 ft 477 kts 278°
2026-05-06 18:23 51.62827 4.24397 37915 ft 477 kts 278°
2026-05-06 18:23 51.63898 4.13901 37913 ft 477 kts 278°
2026-05-06 18:24 51.64963 4.03354 37915 ft 477 kts 278°
2026-05-06 18:24 51.66019 3.92795 37912 ft 477 kts 278°
2026-05-06 18:25 51.67066 3.82226 37923 ft 477 kts 278°
2026-05-06 18:25 51.68103 3.71653 37917 ft 476 kts 278°
2026-05-06 18:26 51.69120 3.61186 37920 ft 476 kts 278°
2026-05-06 18:26 51.70133 3.50657 37929 ft 475 kts 278°
2026-05-06 18:27 51.71139 3.40097 37926 ft 476 kts 277°
2026-05-06 18:27 51.72132 3.29568 37926 ft 473 kts 277°
2026-05-06 18:28 51.72968 3.19058 37949 ft 473 kts 271°
2026-05-06 18:28 51.72558 3.08524 37941 ft 470 kts 263°
2026-05-06 18:29 51.71694 2.98061 37958 ft 471 kts 261°
2026-05-06 18:29 51.70747 2.87605 37965 ft 470 kts 261°
2026-05-06 18:30 51.69801 2.77143 37962 ft 472 kts 261°
2026-05-06 18:30 51.68867 2.66727 37954 ft 472 kts 261°
2026-05-06 18:31 51.67929 2.56226 37956 ft 472 kts 261°
2026-05-06 18:31 51.66985 2.45746 37959 ft 472 kts 261°
2026-05-06 18:32 51.66024 2.35264 37957 ft 473 kts 261°
2026-05-06 18:32 51.65056 2.24851 37964 ft 473 kts 261°
2026-05-06 18:33 51.64073 2.14364 37968 ft 473 kts 261°
2026-05-06 18:33 51.63096 2.03936 37966 ft 473 kts 261°
2026-05-06 18:34 51.62121 1.93414 37967 ft 473 kts 261°
2026-05-06 18:34 51.61147 1.83001 37970 ft 473 kts 261°
2026-05-06 18:35 51.60164 1.72550 37976 ft 473 kts 261°
2026-05-06 18:35 51.59303 1.62014 37979 ft 473 kts 267°
2026-05-06 18:36 51.59471 1.51448 37980 ft 473 kts 272°
2026-05-06 18:36 51.59909 1.40856 37981 ft 474 kts 274°
2026-05-06 18:37 51.60302 1.32115 37982 ft 474 kts 274°
2026-05-06 18:37 51.60839 1.19738 37986 ft 474 kts 273°
2026-05-06 18:38 51.61264 1.09180 37984 ft 474 kts 273°
2026-05-06 18:38 51.61675 0.98591 37986 ft 474 kts 273°
2026-05-06 18:39 51.62084 0.87969 37992 ft 475 kts 273°
2026-05-06 18:40 51.62677 0.72110 37993 ft 475 kts 273°
2026-05-06 18:40 51.63062 0.61508 37992 ft 475 kts 273°
2026-05-06 18:41 51.63374 0.52647 37990 ft 475 kts 273°
2026-05-06 18:41 51.63737 0.42070 37989 ft 474 kts 273°
2026-05-06 18:42 51.64087 0.31452 37997 ft 474 kts 272°
2026-05-06 18:42 51.64429 0.20882 37989 ft 474 kts 273°
2026-05-06 18:43 51.64054 0.10324 37995 ft 473 kts 262°
2026-05-06 18:43 51.63016 -0.00164 38039 ft 473 kts 260°
2026-05-06 18:44 51.62051 -0.10162 38038 ft 473 kts 266°
2026-05-06 18:44 51.62237 -0.20741 38046 ft 473 kts 274°
2026-05-06 18:45 51.62846 -0.31264 38046 ft 473 kts 276°
2026-05-06 18:45 51.63517 -0.41810 37996 ft 473 kts 275°
2026-05-06 18:46 51.64168 -0.52389 37992 ft 473 kts 275°
2026-05-06 18:46 51.64789 -0.62930 37994 ft 473 kts 275°
2026-05-06 18:47 51.65397 -0.73511 37997 ft 473 kts 275°
2026-05-06 18:47 51.65994 -0.84067 37998 ft 473 kts 275°
2026-05-06 18:48 51.66561 -0.94241 37993 ft 473 kts 275°
2026-05-06 18:48 51.67143 -1.04854 37994 ft 474 kts 275°
2026-05-06 18:49 51.67710 -1.15363 37989 ft 474 kts 275°
2026-05-06 18:49 51.68272 -1.25962 37990 ft 474 kts 275°
2026-05-06 18:50 51.68821 -1.36496 38016 ft 474 kts 275°
2026-05-06 18:50 51.69365 -1.47124 38016 ft 474 kts 275°
2026-05-06 18:51 51.69898 -1.57705 38019 ft 474 kts 275°
2026-05-06 18:51 51.70419 -1.68247 38003 ft 475 kts 275°
2026-05-06 18:52 51.71079 -1.78823 37996 ft 474 kts 277°
2026-05-06 18:52 51.71898 -1.89420 38019 ft 474 kts 277°
2026-05-06 18:53 51.72689 -1.99943 38017 ft 475 kts 277°
2026-05-06 18:53 51.73441 -2.10532 38017 ft 475 kts 276°
2026-05-06 18:54 51.74172 -2.21113 38022 ft 475 kts 276°
2026-05-06 18:54 51.74896 -2.31755 38014 ft 475 kts 276°
2026-05-06 18:55 51.75605 -2.42297 38018 ft 475 kts 276°
2026-05-06 18:55 51.76308 -2.52880 38009 ft 474 kts 276°
2026-05-06 18:56 51.77002 -2.63454 38006 ft 474 kts 276°
2026-05-06 18:56 51.77688 -2.74077 38003 ft 474 kts 276°
2026-05-06 18:57 51.78359 -2.84618 38047 ft 474 kts 276°
2026-05-06 18:57 51.79021 -2.95164 38048 ft 474 kts 276°
2026-05-06 18:58 51.79677 -3.05765 38045 ft 474 kts 276°
2026-05-06 18:58 51.80326 -3.16405 38039 ft 474 kts 276°
2026-05-06 18:59 51.80961 -3.26980 38026 ft 474 kts 276°
2026-05-06 18:59 51.81588 -3.37588 38020 ft 474 kts 276°
2026-05-06 19:00 51.82207 -3.48221 38004 ft 475 kts 276°
2026-05-06 19:00 51.83189 -3.58770 38008 ft 474 kts 281°
2026-05-06 19:01 51.84494 -3.69163 38008 ft 474 kts 282°
2026-05-06 19:01 51.85852 -3.79606 38005 ft 475 kts 282°
2026-05-06 19:02 51.87201 -3.90061 38002 ft 475 kts 282°
2026-05-06 19:02 51.88536 -4.00529 38006 ft 475 kts 282°
2026-05-06 19:03 51.89861 -4.11027 38007 ft 475 kts 282°
2026-05-06 19:03 51.91169 -4.21525 38001 ft 475 kts 282°
2026-05-06 19:04 51.92468 -4.32019 38004 ft 475 kts 282°
2026-05-06 19:04 51.93753 -4.42460 38005 ft 475 kts 282°
2026-05-06 19:05 51.95036 -4.52969 38006 ft 475 kts 282°
2026-05-06 19:05 51.96310 -4.63491 38003 ft 475 kts 282°
2026-05-06 19:06 51.97576 -4.74021 38006 ft 475 kts 282°
2026-05-06 19:06 51.98834 -4.84570 38003 ft 475 kts 281°
2026-05-06 19:07 52.00080 -4.95111 38003 ft 476 kts 282°
2026-05-06 19:07 52.01311 -5.05605 38007 ft 476 kts 281°
2026-05-06 19:08 52.02546 -5.16176 38007 ft 476 kts 282°
2026-05-06 19:08 52.04349 -5.26532 38005 ft 476 kts 288°
2026-05-06 19:09 52.06387 -5.36760 38002 ft 476 kts 289°
2026-05-06 19:09 52.08446 -5.46919 38002 ft 476 kts 289°
2026-05-06 19:10 52.10504 -5.57149 38006 ft 476 kts 289°
2026-05-06 19:10 52.12545 -5.67391 38005 ft 476 kts 288°
2026-05-06 19:11 52.14574 -5.77646 38013 ft 476 kts 288°
2026-05-06 19:11 52.16109 -5.88131 38005 ft 477 kts 279°
2026-05-06 19:12 52.17013 -5.98850 38004 ft 478 kts 278°
2026-05-06 19:12 52.17806 -6.09606 37998 ft 478 kts 278°
2026-05-06 19:13 52.18575 -6.20284 38000 ft 478 kts 278°
2026-05-06 19:13 52.19354 -6.31072 38000 ft 478 kts 278°
2026-05-06 19:14 52.20128 -6.41839 37993 ft 478 kts 278°
2026-05-06 19:14 52.20896 -6.52627 37996 ft 479 kts 277°
2026-05-06 19:15 52.21653 -6.63420 38009 ft 479 kts 277°
2026-05-06 19:15 52.22395 -6.74143 37996 ft 479 kts 277°
2026-05-06 19:16 52.23133 -6.84957 38005 ft 479 kts 277°
2026-05-06 19:16 52.23860 -6.95762 37999 ft 480 kts 277°
2026-05-06 19:17 52.24581 -7.06620 37982 ft 481 kts 277°
2026-05-06 19:17 52.25290 -7.17460 37999 ft 481 kts 277°
2026-05-06 19:18 52.25991 -7.28325 37996 ft 481 kts 277°
2026-05-06 19:18 52.26677 -7.39119 37992 ft 481 kts 277°
2026-05-06 19:19 52.27358 -7.49989 37992 ft 481 kts 277°
2026-05-06 19:19 52.28029 -7.60870 37989 ft 482 kts 277°
2026-05-06 19:20 52.28692 -7.71773 37982 ft 481 kts 277°
2026-05-06 19:20 52.29343 -7.82658 37994 ft 481 kts 277°
2026-05-06 19:21 52.29985 -7.93549 37983 ft 481 kts 277°
2026-05-06 19:21 52.30612 -8.04386 37984 ft 482 kts 277°
2026-05-06 19:22 52.31234 -8.15295 37986 ft 482 kts 277°
2026-05-06 19:22 52.31847 -8.26228 37979 ft 482 kts 277°
2026-05-06 19:23 52.32449 -8.37146 37983 ft 482 kts 277°
2026-05-06 19:23 52.33041 -8.48064 37979 ft 482 kts 277°
2026-05-06 19:24 52.33619 -8.58930 37983 ft 482 kts 276°
2026-05-06 19:24 52.34192 -8.69867 37982 ft 482 kts 276°
2026-05-06 19:25 52.34755 -8.80810 37981 ft 482 kts 276°
2026-05-06 19:25 52.35306 -8.91742 37983 ft 482 kts 276°
2026-05-06 19:26 52.35849 -9.02702 37986 ft 483 kts 276°
2026-05-06 19:26 52.36378 -9.13585 37978 ft 483 kts 276°
2026-05-06 19:27 52.36899 -9.24521 37984 ft 483 kts 276°
2026-05-06 19:27 52.37415 -9.35558 37991 ft 483 kts 276°
2026-05-06 19:28 52.37913 -9.46456 37988 ft 483 kts 276°
2026-05-06 19:28 52.38404 -9.57419 37993 ft 483 kts 276°
2026-05-06 19:29 52.38807 -9.66562 37990 ft 482 kts 276°
2026-05-06 19:29 52.39280 -9.77528 37994 ft 482 kts 276°
2026-05-06 19:30 52.39741 -9.88441 37993 ft 482 kts 275°
2026-05-06 19:30 52.40192 -9.99379 37980 ft 482 kts 275°
2026-05-06 19:31 52.40633 -10.10300 37999 ft 482 kts 275°
2026-05-06 19:31 52.41279 -10.26774 37992 ft 482 kts 275°
2026-05-06 19:32 52.41693 -10.37672 37995 ft 482 kts 275°
2026-05-06 19:32 52.42100 -10.48667 37992 ft 482 kts 275°
2026-05-06 19:33 52.42496 -10.59600 37991 ft 482 kts 275°
2026-05-06 19:33 52.42883 -10.70590 37988 ft 482 kts 275°
2026-05-06 19:34 52.43259 -10.81565 37991 ft 482 kts 275°
2026-05-06 19:34 52.43626 -10.92559 37996 ft 482 kts 275°
2026-05-06 19:35 52.43981 -11.03523 37991 ft 482 kts 274°
2026-05-06 19:35 52.44325 -11.14435 37993 ft 482 kts 274°
2026-05-06 19:36 52.44660 -11.25386 37993 ft 482 kts 274°
2026-05-06 19:36 52.44984 -11.36340 37993 ft 482 kts 274°
2026-05-06 19:37 52.45299 -11.47300 37997 ft 482 kts 274°
2026-05-06 19:37 52.45603 -11.58249 37989 ft 479 kts 274°
2026-05-06 19:38 52.45896 -11.69183 37990 ft 478 kts 274°
2026-05-06 19:38 52.46177 -11.80011 37990 ft 478 kts 274°
2026-05-06 19:39 52.46450 -11.90896 37989 ft 478 kts 274°
2026-05-06 19:39 52.46713 -12.01822 37988 ft 478 kts 274°
2026-05-06 19:40 52.46964 -12.12644 37987 ft 478 kts 273°
2026-05-06 19:40 52.47208 -12.23589 37987 ft 478 kts 273°
2026-05-06 19:41 52.47439 -12.34434 37991 ft 478 kts 273°
2026-05-06 19:41 52.47662 -12.45343 37988 ft 478 kts 273°
2026-05-06 19:42 52.47874 -12.56246 37986 ft 478 kts 273°
2026-05-06 19:42 52.48077 -12.67139 37982 ft 478 kts 273°
2026-05-06 19:43 52.48269 -12.78027 37983 ft 478 kts 273°
2026-05-06 19:43 52.48451 -12.88924 37980 ft 478 kts 272°
2026-05-06 19:44 52.48623 -12.99755 37982 ft 478 kts 272°
2026-05-06 19:44 52.48785 -13.10653 37981 ft 477 kts 272°
2026-05-06 19:45 52.48937 -13.21536 37982 ft 477 kts 272°
2026-05-06 19:45 52.49080 -13.32435 37982 ft 477 kts 272°
2026-05-06 19:46 52.49212 -13.43329 37982 ft 477 kts 272°
2026-05-06 19:46 52.49334 -13.54179 37980 ft 475 kts 272°
2026-05-06 19:47 52.49445 -13.64952 37979 ft 475 kts 271°
2026-05-06 19:47 52.49547 -13.75818 37979 ft 476 kts 271°
2026-05-06 19:48 52.49639 -13.86666 37980 ft 476 kts 271°
2026-05-06 19:48 52.49721 -13.97533 37980 ft 476 kts 271°
2026-05-06 19:49 52.49794 -14.08391 37973 ft 476 kts 271°
2026-05-06 19:49 52.49856 -14.19252 37974 ft 476 kts 271°
2026-05-06 19:50 52.49908 -14.30055 37972 ft 476 kts 271°
2026-05-06 19:50 52.49950 -14.40915 37971 ft 476 kts 271°
2026-05-06 19:51 52.49983 -14.51779 37971 ft 476 kts 271°
2026-05-06 19:51 52.50006 -14.62649 37972 ft 476 kts 270°
2026-05-06 19:52 52.50019 -14.73504 37976 ft 475 kts 270°
2026-05-06 19:52 52.50021 -14.84347 37977 ft 475 kts 270°
2026-05-06 19:53 52.50017 -14.95188 37973 ft 475 kts 270°
2026-05-06 19:53 52.50751 -15.05948 37989 ft 476 kts 280°
2026-05-06 19:54 52.51993 -15.16691 38013 ft 481 kts 281°
2026-05-06 19:54 52.53307 -15.27420 38205 ft 481 kts 281°
2026-05-06 19:55 52.53960 -15.32772 38623 ft 475 kts 281°
2026-05-06 19:55 52.54599 -15.38073 38848 ft 472 kts 281°
2026-05-06 19:55 52.55232 -15.43365 38954 ft 472 kts 281°
2026-05-06 19:55 52.55861 -15.48676 38972 ft 474 kts 281°
2026-05-06 19:56 52.57114 -15.59342 38971 ft 475 kts 281°
2026-05-06 19:56 52.58354 -15.70001 38971 ft 475 kts 281°
2026-05-06 19:57 52.58563 -15.71802 38971 ft 475 kts 281°
2026-05-06 19:58 52.58814 -15.73967 38972 ft 475 kts 280°
2026-05-06 19:58 52.60045 -15.84659 38968 ft 475 kts 280°
2026-05-06 19:59 52.61265 -15.95340 38967 ft 475 kts 280°
2026-05-06 19:59 52.62475 -16.06030 38970 ft 475 kts 280°
2026-05-06 20:00 52.63677 -16.16723 38979 ft 475 kts 280°
2026-05-06 20:00 52.64666 -16.25597 38966 ft 473 kts 279°
2026-05-06 20:02 52.64878 -16.27500 38970 ft 473 kts 279°
2026-05-06 20:02 52.66053 -16.38163 38966 ft 473 kts 279°
2026-05-06 20:03 52.67124 -16.47954 38965 ft 473 kts 279°
2026-05-06 20:03 52.68275 -16.58563 38965 ft 473 kts 279°
2026-05-06 20:04 52.69424 -16.69240 38966 ft 473 kts 279°
2026-05-06 20:04 52.70564 -16.79936 38967 ft 473 kts 279°
2026-05-06 20:05 52.71692 -16.90607 38966 ft 472 kts 278°
2026-05-06 20:05 52.72809 -17.01275 38966 ft 472 kts 278°
2026-05-06 20:06 52.73917 -17.11953 38966 ft 472 kts 278°
2026-05-06 20:06 52.75014 -17.22625 38968 ft 471 kts 278°
2026-05-06 20:07 52.76096 -17.33239 38966 ft 471 kts 278°
2026-05-06 20:07 52.77172 -17.43902 38963 ft 470 kts 278°
2026-05-06 20:08 52.78236 -17.54551 38963 ft 470 kts 278°
2026-05-06 20:08 52.79292 -17.65216 38966 ft 470 kts 278°
2026-05-06 20:09 52.80331 -17.75809 38966 ft 470 kts 278°
2026-05-06 20:09 52.81369 -17.86486 38966 ft 470 kts 278°
2026-05-06 20:10 52.82396 -17.97160 38966 ft 470 kts 277°
2026-05-06 20:10 52.83408 -18.07792 38966 ft 470 kts 277°
2026-05-06 20:11 52.84418 -18.18498 38974 ft 470 kts 277°
2026-05-06 20:11 52.85417 -18.29197 38966 ft 470 kts 277°
2026-05-06 20:12 52.86406 -18.39894 38966 ft 470 kts 277°
2026-05-06 20:12 52.87386 -18.50606 38970 ft 470 kts 277°
2026-05-06 20:13 52.88357 -18.61327 38966 ft 471 kts 277°
2026-05-06 20:13 52.89318 -18.72052 38966 ft 471 kts 277°
2026-05-06 20:14 52.90267 -18.82743 38966 ft 471 kts 277°
2026-05-06 20:14 52.91209 -18.93489 38966 ft 471 kts 277°
2026-05-06 20:15 52.92143 -19.04242 38969 ft 471 kts 277°
2026-05-06 20:15 52.93061 -19.14941 38969 ft 471 kts 276°
2026-05-06 20:16 52.93977 -19.25723 38970 ft 472 kts 276°
2026-05-06 20:16 52.94730 -19.34676 38969 ft 472 kts 276°
2026-05-06 20:17 52.95628 -19.45466 38971 ft 472 kts 276°
2026-05-06 20:17 52.96516 -19.56267 38972 ft 472 kts 276°
2026-05-06 20:18 52.97387 -19.66983 38975 ft 472 kts 276°
2026-05-06 20:18 52.98257 -19.77797 38974 ft 472 kts 276°
2026-05-06 20:19 52.99116 -19.88612 38978 ft 472 kts 276°
2026-05-06 20:19 52.99967 -19.99442 38977 ft 472 kts 276°
2026-05-06 20:20 53.00601 -20.10226 38977 ft 472 kts 272°
2026-05-06 20:20 53.00962 -20.21116 38978 ft 472 kts 272°
2026-05-06 20:21 53.01326 -20.32009 38980 ft 472 kts 272°
2026-05-06 20:21 53.01729 -20.42904 38976 ft 472 kts 273°
2026-05-06 20:22 53.02141 -20.53734 38982 ft 472 kts 273°
2026-05-06 20:22 53.02549 -20.64652 38977 ft 472 kts 272°
2026-05-06 20:23 53.02945 -20.75556 38992 ft 472 kts 272°
2026-05-06 20:23 53.03326 -20.86388 38983 ft 473 kts 272°
2026-05-06 20:24 53.03700 -20.97308 38982 ft 473 kts 272°
2026-05-06 20:24 53.04065 -21.08234 38982 ft 473 kts 272°
2026-05-06 20:25 53.04419 -21.19148 38986 ft 473 kts 272°
2026-05-06 20:25 53.04762 -21.30017 38989 ft 473 kts 272°
2026-05-06 20:26 53.05096 -21.40953 38982 ft 473 kts 272°
2026-05-06 20:26 53.05420 -21.51876 38992 ft 473 kts 272°
2026-05-06 20:27 53.05735 -21.62820 38987 ft 473 kts 272°
2026-05-06 20:27 53.06040 -21.73753 38995 ft 473 kts 272°
2026-05-06 20:28 53.06334 -21.84692 38983 ft 473 kts 272°
2026-05-06 20:28 53.06618 -21.95635 38988 ft 474 kts 272°
2026-05-06 20:29 53.06892 -22.06539 38996 ft 475 kts 272°
2026-05-06 20:29 53.07157 -22.17517 38994 ft 475 kts 272°
2026-05-06 20:30 53.07536 -22.33995 38996 ft 475 kts 272°
2026-05-06 20:31 53.07776 -22.44971 38988 ft 475 kts 272°
2026-05-06 20:31 53.08006 -22.55968 38988 ft 476 kts 272°
2026-05-06 20:32 53.08226 -22.66965 39003 ft 476 kts 271°
2026-05-06 20:32 53.08435 -22.77908 38990 ft 476 kts 271°
2026-05-06 20:33 53.08635 -22.88920 38994 ft 476 kts 271°
2026-05-06 20:33 53.08825 -22.99948 38995 ft 476 kts 271°
2026-05-06 20:34 53.09005 -23.10978 38996 ft 477 kts 271°
2026-05-06 20:34 53.09175 -23.22026 38988 ft 477 kts 271°
2026-05-06 20:35 53.09335 -23.33090 38999 ft 477 kts 271°
2026-05-06 20:35 53.09484 -23.44145 38998 ft 478 kts 271°
2026-05-06 20:36 53.09623 -23.55119 38995 ft 477 kts 271°
2026-05-06 20:36 53.09752 -23.66182 38994 ft 479 kts 271°
2026-05-06 20:37 53.09871 -23.77262 38999 ft 479 kts 271°
2026-05-06 20:37 53.09980 -23.88354 39009 ft 479 kts 271°
2026-05-06 20:38 53.10079 -23.99448 38999 ft 479 kts 271°
2026-05-06 20:38 53.10167 -24.10534 39002 ft 479 kts 271°
2026-05-06 20:39 53.10244 -24.21581 39003 ft 480 kts 271°
2026-05-06 20:39 53.10312 -24.32701 39002 ft 480 kts 271°
2026-05-06 20:40 53.10370 -24.43820 39000 ft 480 kts 270°
2026-05-06 20:40 53.10417 -24.54939 39002 ft 480 kts 270°
2026-05-06 20:41 53.10454 -24.65998 39003 ft 480 kts 270°
2026-05-06 20:41 53.10480 -24.77119 38996 ft 481 kts 270°
2026-05-06 20:42 53.10496 -24.88258 38999 ft 481 kts 270°
2026-05-06 20:42 53.10502 -24.99389 39004 ft 481 kts 270°
2026-05-06 20:43 53.10497 -25.10524 39011 ft 481 kts 270°
2026-05-06 20:43 53.10482 -25.21584 38998 ft 480 kts 270°
2026-05-06 20:44 53.10457 -25.32712 39005 ft 481 kts 270°
2026-05-06 20:44 53.10421 -25.43858 39004 ft 481 kts 270°
2026-05-06 20:45 53.10375 -25.54992 39003 ft 481 kts 270°
2026-05-06 20:45 53.10318 -25.66134 39006 ft 481 kts 270°
2026-05-06 20:46 53.10251 -25.77277 38999 ft 481 kts 270°
2026-05-06 20:46 53.10174 -25.88398 39004 ft 480 kts 270°
2026-05-06 20:47 53.10087 -25.99464 39003 ft 481 kts 270°
2026-05-06 20:47 53.09989 -26.10577 39000 ft 481 kts 270°
2026-05-06 20:48 53.09881 -26.21735 39006 ft 481 kts 270°
2026-05-06 20:48 53.09762 -26.32855 39002 ft 481 kts 269°
2026-05-06 20:49 53.09633 -26.43971 38997 ft 480 kts 270°
2026-05-06 20:49 53.09493 -26.55093 39003 ft 480 kts 269°
2026-05-06 20:50 53.09343 -26.66206 39006 ft 480 kts 269°
2026-05-06 20:50 53.09185 -26.77244 39001 ft 480 kts 269°
2026-05-06 20:51 53.09014 -26.88376 38998 ft 480 kts 269°
2026-05-06 20:51 53.08833 -26.99487 38998 ft 480 kts 269°
2026-05-06 20:52 53.08642 -27.10605 38994 ft 480 kts 269°
2026-05-06 20:52 53.08442 -27.21639 38999 ft 480 kts 269°
2026-05-06 20:53 53.08231 -27.32753 38996 ft 480 kts 269°
2026-05-06 20:53 53.08008 -27.43867 38996 ft 481 kts 269°
2026-05-06 20:54 53.07775 -27.54967 38991 ft 480 kts 269°
2026-05-06 20:54 53.07532 -27.66092 38994 ft 481 kts 269°
2026-05-06 20:55 53.07279 -27.77211 38993 ft 480 kts 269°
2026-05-06 20:55 53.07015 -27.88321 38991 ft 481 kts 269°
2026-05-06 20:56 53.06744 -27.99349 38999 ft 481 kts 269°
2026-05-06 20:56 53.06460 -28.10470 38993 ft 481 kts 269°
2026-05-06 20:57 53.06165 -28.21587 38992 ft 482 kts 268°
2026-05-06 20:57 53.05858 -28.32719 38991 ft 481 kts 269°
2026-05-06 20:58 53.05543 -28.43841 38991 ft 482 kts 269°
2026-05-06 20:58 53.05217 -28.54960 38988 ft 481 kts 269°
2026-05-06 20:59 53.04880 -28.66089 38987 ft 483 kts 268°
2026-05-06 20:59 53.04532 -28.77241 38987 ft 482 kts 268°
2026-05-06 21:00 53.04173 -28.88388 38984 ft 483 kts 269°
2026-05-06 21:00 53.03805 -28.99520 38991 ft 482 kts 268°
2026-05-06 21:01 53.03428 -29.10591 38982 ft 482 kts 269°
2026-05-06 21:01 53.03040 -29.21718 38980 ft 483 kts 268°
2026-05-06 21:02 53.02639 -29.32898 38976 ft 484 kts 268°
2026-05-06 21:02 53.02227 -29.44063 38984 ft 485 kts 268°
2026-05-06 21:03 53.01876 -29.53372 38971 ft 483 kts 268°
2026-05-06 21:03 53.01445 -29.64534 38972 ft 485 kts 268°
2026-05-06 21:04 53.01004 -29.75708 38966 ft 484 kts 268°
2026-05-06 21:04 53.00554 -29.86852 38977 ft 489 kts 268°
2026-05-06 21:05 53.00087 -29.98126 38973 ft 488 kts 268°
2026-05-06 21:05 52.99769 -30.09357 38974 ft 486 kts 271°
2026-05-06 21:06 52.99740 -30.20577 38968 ft 486 kts 272°
2026-05-06 21:06 52.99703 -30.31737 38969 ft 486 kts 271°
2026-05-06 21:07 52.99607 -30.42983 38975 ft 488 kts 271°
2026-05-06 21:07 52.99476 -30.54266 38974 ft 488 kts 270°
2026-05-06 21:08 52.99329 -30.65547 38977 ft 489 kts 270°
2026-05-06 21:08 52.99175 -30.76746 38980 ft 488 kts 270°
2026-05-06 21:09 52.99011 -30.88023 38976 ft 488 kts 270°
2026-05-06 21:09 52.98836 -30.99298 38982 ft 489 kts 270°
2026-05-06 21:10 52.98650 -31.10613 38982 ft 490 kts 270°
2026-05-06 21:10 52.98454 -31.21920 38985 ft 490 kts 270°
2026-05-06 21:11 52.98246 -31.33228 38990 ft 490 kts 270°
2026-05-06 21:11 52.98030 -31.44453 38979 ft 490 kts 270°
2026-05-06 21:12 52.97801 -31.55762 38995 ft 490 kts 270°
2026-05-06 21:12 52.97561 -31.67058 38997 ft 490 kts 270°
2026-05-06 21:13 52.97311 -31.78358 38993 ft 490 kts 270°
2026-05-06 21:13 52.97050 -31.89660 38999 ft 490 kts 270°
2026-05-06 21:14 52.96778 -32.00956 39005 ft 490 kts 270°
2026-05-06 21:14 52.96496 -32.12260 39009 ft 491 kts 270°
2026-05-06 21:15 52.96202 -32.23576 39009 ft 491 kts 270°
2026-05-06 21:15 52.95898 -32.34900 39009 ft 491 kts 270°
2026-05-06 21:16 52.95585 -32.46132 39013 ft 491 kts 269°
2026-05-06 21:16 52.95259 -32.57435 39017 ft 491 kts 269°
2026-05-06 21:17 52.94923 -32.68748 39019 ft 491 kts 269°
2026-05-06 21:17 52.94575 -32.80060 39027 ft 491 kts 269°
2026-05-06 21:18 52.94217 -32.91373 39025 ft 491 kts 269°
2026-05-06 21:18 52.93850 -33.02615 39026 ft 491 kts 269°
2026-05-06 21:19 52.93471 -33.13925 39029 ft 491 kts 269°
2026-05-06 21:19 52.93080 -33.25228 39041 ft 491 kts 269°
2026-05-06 21:20 52.92680 -33.36528 39041 ft 491 kts 269°
2026-05-06 21:20 52.92270 -33.47771 39044 ft 491 kts 269°
2026-05-06 21:21 52.91848 -33.59071 39041 ft 491 kts 269°
2026-05-06 21:21 52.91414 -33.70386 39055 ft 491 kts 269°
2026-05-06 21:22 52.90969 -33.81686 39055 ft 491 kts 269°
2026-05-06 21:22 52.90516 -33.92958 39050 ft 490 kts 269°
2026-05-06 21:23 52.90054 -34.04172 39062 ft 490 kts 269°
2026-05-06 21:23 52.89578 -34.15440 39069 ft 491 kts 269°
2026-05-06 21:24 52.89092 -34.26730 39070 ft 491 kts 269°
2026-05-06 21:24 52.88595 -34.37997 39067 ft 490 kts 269°
2026-05-06 21:25 52.88088 -34.49249 39077 ft 489 kts 269°
2026-05-06 21:25 52.87575 -34.60408 39085 ft 489 kts 269°
2026-05-06 21:26 52.87048 -34.71640 39080 ft 489 kts 269°
2026-05-06 21:26 52.86510 -34.82875 39085 ft 489 kts 268°
2026-05-06 21:27 52.85961 -34.94125 39078 ft 489 kts 269°
2026-05-06 21:27 52.85402 -35.05330 39093 ft 488 kts 268°
2026-05-06 21:28 52.84837 -35.16462 39088 ft 488 kts 269°
2026-05-06 21:28 52.84259 -35.27656 39097 ft 488 kts 269°
2026-05-06 21:29 52.83670 -35.38849 39098 ft 488 kts 268°
2026-05-06 21:29 52.83070 -35.50036 39087 ft 488 kts 269°
2026-05-06 21:30 52.82460 -35.61207 39102 ft 487 kts 268°
2026-05-06 21:30 52.81844 -35.72303 39115 ft 487 kts 268°
2026-05-06 21:31 52.81214 -35.83467 39121 ft 487 kts 268°
2026-05-06 21:31 52.80573 -35.94626 39123 ft 487 kts 268°
2026-05-06 21:32 52.79921 -36.05786 39102 ft 487 kts 268°
2026-05-06 21:32 52.78930 -36.22408 39127 ft 486 kts 268°
2026-05-06 21:33 52.78256 -36.33523 39124 ft 486 kts 268°
2026-05-06 21:33 52.77570 -36.44639 39130 ft 486 kts 268°
2026-05-06 21:34 52.76879 -36.55679 39135 ft 486 kts 268°
2026-05-06 21:34 52.76173 -36.66772 39133 ft 486 kts 268°
2026-05-06 21:35 52.75457 -36.77849 39138 ft 485 kts 268°
2026-05-06 21:35 52.74732 -36.88911 39143 ft 485 kts 268°
2026-05-06 21:36 52.73996 -36.99986 39143 ft 485 kts 268°
2026-05-06 21:36 52.73251 -37.11041 39148 ft 485 kts 268°
2026-05-06 21:37 52.72495 -37.22091 39138 ft 484 kts 268°
2026-05-06 21:37 52.71730 -37.33120 39151 ft 483 kts 268°
2026-05-06 21:38 52.70961 -37.44062 39157 ft 483 kts 268°
2026-05-06 21:38 52.70177 -37.55077 39157 ft 483 kts 268°
2026-05-06 21:39 52.69383 -37.66085 39157 ft 483 kts 268°
2026-05-06 21:39 52.68578 -37.77083 39146 ft 483 kts 268°
2026-05-06 21:40 52.67764 -37.88065 39156 ft 481 kts 268°
2026-05-06 21:40 52.66948 -37.98934 39157 ft 481 kts 268°
2026-05-06 21:41 52.66118 -38.09867 39159 ft 481 kts 268°
2026-05-06 21:41 52.65276 -38.20811 39165 ft 481 kts 268°
2026-05-06 21:42 52.64424 -38.31752 39162 ft 481 kts 267°
2026-05-06 21:42 52.63562 -38.42693 39165 ft 481 kts 267°
2026-05-06 21:43 52.62691 -38.53612 39162 ft 481 kts 267°
2026-05-06 21:43 52.61815 -38.64465 39163 ft 481 kts 267°
2026-05-06 21:44 52.60920 -38.75416 39169 ft 481 kts 267°
2026-05-06 21:44 52.60017 -38.86343 39162 ft 482 kts 267°
2026-05-06 21:45 52.59104 -38.97256 39171 ft 480 kts 267°
2026-05-06 21:45 52.58185 -39.08126 39173 ft 480 kts 267°
2026-05-06 21:46 52.57263 -39.18921 39162 ft 479 kts 267°
2026-05-06 21:46 52.56325 -39.29774 39170 ft 480 kts 267°
2026-05-06 21:47 52.55376 -39.40638 39174 ft 480 kts 267°
2026-05-06 21:47 52.54417 -39.51483 39173 ft 478 kts 267°
2026-05-06 21:48 52.53453 -39.62273 39182 ft 477 kts 267°
2026-05-06 21:48 52.52486 -39.72995 39184 ft 477 kts 266°
2026-05-06 21:49 52.51504 -39.83765 39188 ft 477 kts 266°
2026-05-06 21:49 52.50513 -39.94528 39184 ft 477 kts 266°
2026-05-06 21:50 52.48972 -40.05187 39178 ft 481 kts 259°
2026-05-06 21:50 52.46970 -40.15651 39186 ft 479 kts 258°
2026-05-06 21:51 52.44907 -40.25977 39175 ft 479 kts 257°
2026-05-06 21:51 52.42828 -40.36343 39188 ft 478 kts 257°
2026-05-06 21:52 52.41103 -40.44949 39186 ft 477 kts 257°
2026-05-06 21:52 52.39029 -40.55278 39194 ft 475 kts 258°
2026-05-06 21:53 52.36958 -40.65537 39182 ft 474 kts 258°
2026-05-06 21:53 52.34885 -40.75764 39182 ft 473 kts 258°
2026-05-06 21:54 52.32801 -40.85989 39194 ft 474 kts 257°
2026-05-06 21:54 52.30707 -40.96203 39196 ft 474 kts 257°
2026-05-06 21:55 52.28608 -41.06381 39186 ft 471 kts 257°
2026-05-06 21:55 52.26522 -41.16452 39188 ft 470 kts 257°
2026-05-06 21:56 52.24420 -41.26558 39188 ft 470 kts 257°
2026-05-06 21:56 52.22309 -41.36651 39189 ft 470 kts 257°
2026-05-06 21:57 52.20187 -41.46747 39169 ft 470 kts 257°
2026-05-06 21:57 52.18063 -41.56788 39189 ft 467 kts 257°
2026-05-06 21:58 52.15942 -41.66776 39189 ft 466 kts 257°
2026-05-06 21:58 52.13828 -41.76689 39183 ft 466 kts 257°
2026-05-06 21:59 52.11698 -41.86620 39186 ft 464 kts 257°
2026-05-06 21:59 52.09563 -41.96532 39178 ft 464 kts 257°
2026-05-06 22:00 52.07424 -42.06412 39186 ft 463 kts 257°
2026-05-06 22:00 52.05274 -42.16296 39188 ft 463 kts 256°
2026-05-06 22:01 52.03115 -42.26172 39186 ft 463 kts 256°
2026-05-06 22:01 52.00948 -42.36039 39184 ft 464 kts 256°
2026-05-06 22:02 51.98772 -42.45896 39182 ft 463 kts 255°
2026-05-06 22:02 51.96607 -42.55657 39184 ft 463 kts 255°
2026-05-06 22:03 51.94418 -42.65483 39184 ft 463 kts 255°
2026-05-06 22:03 51.92218 -42.75311 39181 ft 463 kts 255°
2026-05-06 22:04 51.90014 -42.85111 39180 ft 463 kts 255°
2026-05-06 22:04 51.87800 -42.94915 39184 ft 464 kts 255°
2026-05-06 22:05 51.85586 -43.04669 39185 ft 465 kts 255°
2026-05-06 22:05 51.83344 -43.14494 39185 ft 465 kts 255°
2026-05-06 22:06 51.81096 -43.24307 39168 ft 465 kts 254°
2026-05-06 22:06 51.78841 -43.34102 39170 ft 465 kts 254°
2026-05-06 22:07 51.76591 -43.43830 39175 ft 465 kts 254°
2026-05-06 22:07 51.74319 -43.53613 39169 ft 465 kts 254°
2026-05-06 22:08 51.72037 -43.63392 39171 ft 465 kts 254°
2026-05-06 22:08 51.69746 -43.73163 39171 ft 465 kts 254°
2026-05-06 22:09 51.67449 -43.82915 39163 ft 464 kts 253°
2026-05-06 22:09 51.65154 -43.92613 39168 ft 463 kts 253°
2026-05-06 22:10 51.62854 -44.02294 39166 ft 463 kts 253°
2026-05-06 22:10 51.60548 -44.11958 39164 ft 463 kts 253°
2026-05-06 22:11 51.58246 -44.21557 39164 ft 463 kts 253°
2026-05-06 22:11 51.55921 -44.31215 39156 ft 462 kts 253°
2026-05-06 22:12 51.53592 -44.40844 39159 ft 462 kts 253°
2026-05-06 22:12 51.51257 -44.50453 39160 ft 462 kts 253°
2026-05-06 22:13 51.48914 -44.60056 39161 ft 462 kts 252°
2026-05-06 22:13 51.46565 -44.69634 39144 ft 461 kts 253°
2026-05-06 22:14 51.44234 -44.79104 39160 ft 459 kts 253°
2026-05-06 22:14 51.41881 -44.88622 39160 ft 459 kts 252°
2026-05-06 22:15 51.39519 -44.98137 39159 ft 459 kts 252°
2026-05-06 22:15 51.37153 -45.07628 39159 ft 459 kts 252°
2026-05-06 22:16 51.34778 -45.17116 39150 ft 458 kts 252°
2026-05-06 22:16 51.32414 -45.26512 39159 ft 457 kts 252°
2026-05-06 22:17 51.30035 -45.35935 39159 ft 457 kts 252°
2026-05-06 22:17 51.27646 -45.45356 39158 ft 457 kts 252°
2026-05-06 22:18 51.25250 -45.54766 39155 ft 457 kts 252°
2026-05-06 22:18 51.22848 -45.64158 39158 ft 455 kts 252°
2026-05-06 22:19 51.20461 -45.73449 39158 ft 454 kts 252°
2026-05-06 22:19 51.18057 -45.82772 39162 ft 454 kts 251°
2026-05-06 22:20 51.15646 -45.92086 39160 ft 454 kts 251°
2026-05-06 22:20 51.13246 -46.01320 39150 ft 454 kts 251°
2026-05-06 22:21 51.10825 -46.10594 39153 ft 452 kts 251°
2026-05-06 22:21 51.08402 -46.19835 39156 ft 451 kts 251°
2026-05-06 22:22 51.05974 -46.29062 39153 ft 451 kts 251°
2026-05-06 22:22 51.03559 -46.38202 39152 ft 451 kts 251°
2026-05-06 22:23 51.01121 -46.47396 39143 ft 451 kts 250°
2026-05-06 22:23 50.98681 -46.56553 39149 ft 449 kts 250°
2026-05-06 22:24 50.96238 -46.65687 39151 ft 449 kts 250°
2026-05-06 22:24 50.93803 -46.74762 39151 ft 449 kts 250°
2026-05-06 22:25 50.91347 -46.83872 39151 ft 449 kts 250°
2026-05-06 22:25 50.88887 -46.92965 39148 ft 448 kts 250°
2026-05-06 22:26 50.86424 -47.02030 39154 ft 447 kts 250°
2026-05-06 22:26 50.83961 -47.11064 39154 ft 447 kts 250°
2026-05-06 22:27 50.81488 -47.20096 39154 ft 447 kts 250°
2026-05-06 22:27 50.79029 -47.29043 39153 ft 447 kts 250°
2026-05-06 22:28 50.76544 -47.38050 39153 ft 446 kts 249°
2026-05-06 22:28 50.74067 -47.46993 39154 ft 444 kts 249°
2026-05-06 22:29 50.71583 -47.55928 39154 ft 443 kts 249°
2026-05-06 22:29 50.69113 -47.64781 39154 ft 444 kts 249°
2026-05-06 22:30 50.66618 -47.73687 39157 ft 444 kts 249°
2026-05-06 22:30 50.64119 -47.82574 39156 ft 444 kts 249°
2026-05-06 22:31 50.61605 -47.91484 39157 ft 444 kts 249°
2026-05-06 22:31 50.59090 -48.00361 39157 ft 444 kts 249°
2026-05-06 22:32 50.56583 -48.09177 39154 ft 444 kts 249°
2026-05-06 22:32 50.54054 -48.18039 39140 ft 444 kts 248°
2026-05-06 22:33 50.51516 -48.26894 39157 ft 443 kts 249°
2026-05-06 22:33 50.48981 -48.35710 39159 ft 443 kts 248°
2026-05-06 22:34 50.46454 -48.44468 39162 ft 443 kts 248°
2026-05-06 22:34 50.43904 -48.53269 39162 ft 443 kts 248°
2026-05-06 22:35 50.41346 -48.62069 39166 ft 443 kts 248°
2026-05-06 22:35 50.38778 -48.70868 39156 ft 443 kts 248°
2026-05-06 22:36 50.36206 -48.79649 39159 ft 443 kts 248°
2026-05-06 22:36 50.33639 -48.88383 39159 ft 444 kts 248°
2026-05-06 22:37 50.31051 -48.97156 39164 ft 444 kts 248°
2026-05-06 22:37 50.28458 -49.05913 39164 ft 443 kts 247°
2026-05-06 22:38 50.25859 -49.14658 39162 ft 443 kts 247°
2026-05-06 22:38 50.23696 -49.21911 39162 ft 443 kts 247°
2026-05-06 22:39 50.21085 -49.30640 39162 ft 443 kts 247°
2026-05-06 22:39 50.18468 -49.39358 39167 ft 443 kts 247°
2026-05-06 22:40 50.15863 -49.48007 39167 ft 443 kts 247°
2026-05-06 22:40 50.13229 -49.56715 39168 ft 443 kts 246°
2026-05-06 22:41 50.09269 -49.69753 39165 ft 444 kts 246°
2026-05-06 22:42 50.06615 -49.78455 39165 ft 444 kts 246°
2026-05-06 22:42 50.03979 -49.87064 39166 ft 444 kts 246°
2026-05-06 22:43 50.01314 -49.95740 39165 ft 445 kts 246°
2026-05-06 22:43 49.98912 -50.04590 39168 ft 444 kts 250°
2026-05-06 22:44 49.96729 -50.13564 39164 ft 444 kts 251°
2026-05-06 22:44 49.94574 -50.22554 39165 ft 444 kts 251°
2026-05-06 22:45 49.92426 -50.31477 39164 ft 445 kts 251°
2026-05-06 22:45 49.90244 -50.40473 39168 ft 446 kts 251°
2026-05-06 22:46 49.88046 -50.49485 39165 ft 446 kts 250°
2026-05-06 22:46 49.85845 -50.58473 39172 ft 446 kts 250°
2026-05-06 22:47 49.83637 -50.67453 39176 ft 446 kts 250°
2026-05-06 22:47 49.81422 -50.76427 39171 ft 447 kts 250°
2026-05-06 22:48 49.79206 -50.85369 39171 ft 447 kts 250°
2026-05-06 22:48 49.76968 -50.94364 39168 ft 449 kts 250°
2026-05-06 22:49 49.74710 -51.03400 39172 ft 450 kts 250°
2026-05-06 22:49 49.72461 -51.12368 39170 ft 450 kts 250°
2026-05-06 22:50 49.70187 -51.21395 39172 ft 451 kts 250°
2026-05-06 22:50 49.67905 -51.30421 39163 ft 451 kts 250°
2026-05-06 22:51 49.65610 -51.39458 39159 ft 451 kts 250°
2026-05-06 22:51 49.63311 -51.48476 39171 ft 451 kts 250°
2026-05-06 22:52 49.61005 -51.57489 39171 ft 451 kts 250°
2026-05-06 22:52 49.58691 -51.66493 39171 ft 453 kts 250°
2026-05-06 22:53 49.56379 -51.75457 39161 ft 453 kts 250°
2026-05-06 22:53 49.54037 -51.84499 39167 ft 453 kts 250°
2026-05-06 22:54 49.51694 -51.93513 39168 ft 453 kts 250°
2026-05-06 22:54 49.49367 -52.02474 39166 ft 454 kts 251°
2026-05-06 22:55 49.47331 -52.11653 39162 ft 453 kts 254°
2026-05-06 22:55 49.45423 -52.20882 39158 ft 453 kts 254°
2026-05-06 22:56 49.43469 -52.30088 39162 ft 453 kts 253°
2026-05-06 22:56 49.41499 -52.39134 39163 ft 453 kts 253°
2026-05-06 22:57 49.39484 -52.48279 39160 ft 453 kts 253°
2026-05-06 22:57 49.37458 -52.57430 39154 ft 454 kts 253°
2026-05-06 22:58 49.35423 -52.66596 39155 ft 454 kts 253°
2026-05-06 22:58 49.33379 -52.75762 39177 ft 454 kts 253°
2026-05-06 22:59 49.31337 -52.84886 39154 ft 450 kts 253°
2026-05-06 22:59 49.29312 -52.93886 39155 ft 450 kts 253°
2026-05-06 23:00 49.27267 -53.02941 39155 ft 449 kts 253°
2026-05-06 23:00 49.25216 -53.11987 39149 ft 449 kts 253°
2026-05-06 23:01 49.23159 -53.21019 39148 ft 449 kts 253°
2026-05-06 23:01 49.21093 -53.30049 39144 ft 449 kts 253°
2026-05-06 23:02 49.19020 -53.39072 39144 ft 449 kts 253°
2026-05-06 23:02 49.16943 -53.48077 39138 ft 449 kts 253°
2026-05-06 23:03 49.14860 -53.57067 39135 ft 449 kts 253°
2026-05-06 23:03 49.12788 -53.65972 39140 ft 445 kts 253°
2026-05-06 23:04 49.10716 -53.74839 39142 ft 443 kts 253°
2026-05-06 23:04 49.08639 -53.83697 39140 ft 443 kts 253°
2026-05-06 23:05 49.06559 -53.92536 39138 ft 443 kts 253°
2026-05-06 23:05 49.04822 -53.99885 39140 ft 443 kts 253°
2026-05-06 23:06 49.03858 -54.03953 39138 ft 443 kts 253°
2026-05-06 23:06 49.01756 -54.12794 39134 ft 443 kts 253°
2026-05-06 23:07 48.99646 -54.21639 39373 ft 444 kts 252°
2026-05-06 23:07 48.98586 -54.26064 39504 ft 444 kts 252°
2026-05-06 23:07 48.97539 -54.30430 39627 ft 444 kts 252°
2026-05-06 23:07 48.96477 -54.34846 39753 ft 444 kts 252°
2026-05-06 23:08 48.95415 -54.39256 39844 ft 444 kts 252°
2026-05-06 23:08 48.94347 -54.43680 39961 ft 445 kts 252°
2026-05-06 23:08 48.93279 -54.48095 40088 ft 445 kts 252°
2026-05-06 23:09 48.91137 -54.56926 40117 ft 445 kts 252°
2026-05-06 23:09 48.88990 -54.65743 40121 ft 445 kts 251°
2026-05-06 23:10 48.86834 -54.74563 40126 ft 445 kts 251°
2026-05-06 23:10 48.84685 -54.83314 40127 ft 445 kts 251°
2026-05-06 23:11 48.82516 -54.92118 40136 ft 445 kts 251°
2026-05-06 23:11 48.80340 -55.00909 40142 ft 445 kts 251°
2026-05-06 23:12 48.78157 -55.09698 40141 ft 445 kts 251°
2026-05-06 23:12 48.75966 -55.18484 40141 ft 445 kts 251°
2026-05-06 23:13 48.73783 -55.27206 40142 ft 446 kts 251°
2026-05-06 23:13 48.71579 -55.35974 40137 ft 446 kts 251°
2026-05-06 23:14 48.69368 -55.44742 40134 ft 446 kts 251°
2026-05-06 23:14 48.67149 -55.53501 40135 ft 446 kts 251°
2026-05-06 23:15 48.64922 -55.62261 40129 ft 446 kts 251°
2026-05-06 23:15 48.62683 -55.71030 40129 ft 446 kts 251°
2026-05-06 23:16 48.60441 -55.79781 40121 ft 446 kts 250°
2026-05-06 23:16 48.58192 -55.88526 40122 ft 446 kts 250°
2026-05-06 23:17 48.55952 -55.97202 40124 ft 446 kts 250°
2026-05-06 23:17 48.53691 -56.05925 40131 ft 446 kts 250°
2026-05-06 23:18 48.51427 -56.14624 40117 ft 444 kts 250°
2026-05-06 23:18 48.49167 -56.23278 40118 ft 443 kts 250°
2026-05-06 23:19 48.46901 -56.31925 40117 ft 443 kts 250°
2026-05-06 23:19 48.44629 -56.40560 40114 ft 443 kts 250°
2026-05-06 23:20 48.42352 -56.49182 40117 ft 443 kts 250°
2026-05-06 23:20 48.40067 -56.57802 40115 ft 443 kts 250°
2026-05-06 23:21 48.37784 -56.66383 40113 ft 443 kts 250°
2026-05-06 23:21 48.35488 -56.74980 40113 ft 443 kts 250°
2026-05-06 23:22 48.33183 -56.83579 40130 ft 443 kts 250°
2026-05-06 23:22 48.30884 -56.92122 40115 ft 441 kts 250°
2026-05-06 23:23 48.28783 -56.99904 40138 ft 440 kts 250°
2026-05-06 23:23 48.26475 -57.08421 40146 ft 440 kts 250°
2026-05-06 23:24 48.24164 -57.16925 40156 ft 440 kts 249°
2026-05-06 23:24 48.21844 -57.25427 40157 ft 440 kts 249°
2026-05-06 23:25 48.19519 -57.33916 40158 ft 440 kts 249°
2026-05-06 23:25 48.17186 -57.42405 40155 ft 440 kts 249°
2026-05-06 23:26 48.15245 -57.49443 40159 ft 440 kts 249°
2026-05-06 23:26 48.12525 -57.59274 40159 ft 440 kts 249°
2026-05-06 23:27 48.10559 -57.66356 40175 ft 439 kts 249°
2026-05-06 23:27 48.08230 -57.74710 40160 ft 436 kts 249°
2026-05-06 23:28 48.05894 -57.83063 40164 ft 435 kts 249°
2026-05-06 23:28 48.03554 -57.91401 40165 ft 434 kts 249°
2026-05-06 23:29 48.01224 -57.99677 40158 ft 434 kts 249°
2026-05-06 23:29 47.98876 -58.07990 40158 ft 434 kts 249°
2026-05-06 23:30 47.96524 -58.16286 40161 ft 434 kts 249°
2026-05-06 23:30 47.94166 -58.24575 40161 ft 434 kts 249°
2026-05-06 23:31 47.91808 -58.32837 40150 ft 433 kts 249°
2026-05-06 23:31 47.89443 -58.41095 40152 ft 433 kts 249°
2026-05-06 23:32 47.87073 -58.49339 40151 ft 433 kts 249°
2026-05-06 23:32 47.84699 -58.57574 40132 ft 433 kts 249°
2026-05-06 23:33 47.82332 -58.65751 40131 ft 433 kts 249°
2026-05-06 23:33 47.79942 -58.73982 40132 ft 433 kts 249°
2026-05-06 23:34 47.77547 -58.82204 40134 ft 433 kts 248°
2026-05-06 23:34 47.75148 -58.90413 40135 ft 433 kts 248°
2026-05-06 23:35 47.72742 -58.98613 40129 ft 433 kts 248°
2026-05-06 23:35 47.70348 -59.06748 40129 ft 433 kts 248°
2026-05-06 23:36 47.67934 -59.14924 40120 ft 432 kts 248°
2026-05-06 23:36 47.65518 -59.23079 40105 ft 430 kts 248°
2026-05-06 23:37 47.63108 -59.31186 40094 ft 428 kts 248°
2026-05-06 23:37 47.60700 -59.39263 40094 ft 428 kts 248°
2026-05-06 23:38 47.58284 -59.47340 40093 ft 428 kts 248°
2026-05-06 23:38 47.55888 -59.55321 40070 ft 426 kts 248°
2026-05-06 23:39 47.53476 -59.63329 40064 ft 426 kts 248°
2026-05-06 23:39 47.51057 -59.71335 40062 ft 426 kts 247°
2026-05-06 23:40 47.48633 -59.79333 40042 ft 426 kts 247°
2026-05-06 23:40 47.46205 -59.87320 40040 ft 426 kts 247°
2026-05-06 23:41 47.43789 -59.95243 40058 ft 425 kts 246°
2026-05-06 23:41 47.41365 -60.03165 40045 ft 423 kts 246°
2026-05-06 23:42 47.38940 -60.11063 40037 ft 422 kts 246°
2026-05-06 23:42 47.36511 -60.18950 40034 ft 422 kts 246°
2026-05-06 23:43 47.34076 -60.26832 40021 ft 422 kts 246°
2026-05-06 23:43 47.31637 -60.34706 40026 ft 422 kts 246°
2026-05-06 23:44 47.29193 -60.42567 40019 ft 422 kts 246°
2026-05-06 23:44 47.26744 -60.50423 40018 ft 422 kts 246°
2026-05-06 23:45 47.24289 -60.58269 40019 ft 422 kts 246°
2026-05-06 23:45 47.21828 -60.66113 40018 ft 422 kts 246°
2026-05-06 23:46 47.19364 -60.73944 40002 ft 419 kts 246°
2026-05-06 23:46 47.16927 -60.81662 40006 ft 418 kts 246°
2026-05-06 23:47 47.14477 -60.89400 40005 ft 418 kts 245°
2026-05-06 23:47 47.12019 -60.97138 40009 ft 418 kts 245°
2026-05-06 23:48 47.09558 -61.04864 40008 ft 418 kts 245°
2026-05-06 23:48 47.07088 -61.12594 40006 ft 418 kts 245°
2026-05-06 23:49 47.04622 -61.20287 40003 ft 419 kts 245°
2026-05-06 23:49 47.02139 -61.28008 40000 ft 419 kts 245°
2026-05-06 23:50 46.99650 -61.35728 40004 ft 419 kts 245°
2026-05-06 23:50 46.95912 -61.47277 39995 ft 417 kts 245°
2026-05-06 23:51 46.93419 -61.54951 39987 ft 417 kts 245°
2026-05-06 23:51 46.90911 -61.62646 39993 ft 417 kts 245°
2026-05-06 23:52 46.88416 -61.70279 39985 ft 417 kts 245°
2026-05-06 23:52 46.85924 -61.77881 39986 ft 417 kts 244°
2026-05-06 23:53 46.83410 -61.85528 39994 ft 417 kts 244°
2026-05-06 23:53 46.80894 -61.93158 39993 ft 417 kts 244°
2026-05-06 23:54 46.78367 -62.00798 39980 ft 417 kts 244°
2026-05-06 23:54 46.75838 -62.08421 39995 ft 417 kts 244°
2026-05-06 23:55 46.73307 -62.16032 39985 ft 416 kts 244°
2026-05-06 23:55 46.70797 -62.23553 39967 ft 415 kts 244°
2026-05-06 23:56 46.68265 -62.31119 39981 ft 416 kts 243°
2026-05-06 23:56 46.65724 -62.38691 39981 ft 416 kts 243°
2026-05-06 23:57 46.63182 -62.46244 39980 ft 416 kts 243°
2026-05-06 23:57 46.60633 -62.53795 39975 ft 416 kts 243°
2026-05-06 23:58 46.58078 -62.61343 39965 ft 416 kts 243°
2026-05-06 23:58 46.55520 -62.68877 39957 ft 415 kts 243°
2026-05-06 23:59 46.52962 -62.76391 39976 ft 415 kts 243°
2026-05-06 23:59 46.50416 -62.83849 39982 ft 415 kts 243°
2026-05-07 00:00 46.47857 -62.91325 39974 ft 411 kts 243°
2026-05-07 00:00 46.45735 -62.97506 39966 ft 410 kts 243°
2026-05-07 00:01 46.42751 -63.06172 39970 ft 411 kts 242°
2026-05-07 00:01 46.40206 -63.13539 39968 ft 411 kts 242°
2026-05-07 00:02 46.37638 -63.20955 39970 ft 411 kts 242°
2026-05-07 00:02 46.35069 -63.28352 39967 ft 411 kts 242°
2026-05-07 00:03 46.32493 -63.35750 39960 ft 411 kts 242°
2026-05-07 00:03 46.29907 -63.43156 39969 ft 413 kts 242°
2026-05-07 00:04 46.27310 -63.50571 39964 ft 413 kts 242°
2026-05-07 00:04 46.24720 -63.57947 39956 ft 415 kts 241°
2026-05-07 00:05 46.22100 -63.65386 39953 ft 415 kts 241°
2026-05-07 00:05 46.19476 -63.72818 39940 ft 415 kts 241°
2026-05-07 00:06 46.16841 -63.80259 39939 ft 417 kts 241°
2026-05-07 00:06 46.14194 -63.87712 39933 ft 417 kts 241°
2026-05-07 00:07 46.11557 -63.95118 39933 ft 417 kts 241°
2026-05-07 00:07 46.08901 -64.02557 39936 ft 417 kts 241°
2026-05-07 00:08 46.06239 -64.09990 39922 ft 417 kts 241°
2026-05-07 00:08 46.03570 -64.17421 39923 ft 417 kts 241°
2026-05-07 00:09 46.00901 -64.24837 39925 ft 417 kts 241°
2026-05-07 00:09 45.98225 -64.32248 39919 ft 417 kts 241°
2026-05-07 00:10 45.95564 -64.39598 39913 ft 417 kts 241°
2026-05-07 00:10 45.92884 -64.46980 39915 ft 417 kts 241°
2026-05-07 00:11 45.90197 -64.54359 39915 ft 417 kts 241°
2026-05-07 00:11 45.87504 -64.61737 39914 ft 417 kts 241°
2026-05-07 00:12 45.84806 -64.69108 39918 ft 417 kts 241°
2026-05-07 00:12 45.82105 -64.76466 39922 ft 417 kts 240°
2026-05-07 00:13 45.79401 -64.83815 39917 ft 417 kts 241°
2026-05-07 00:13 45.76702 -64.91128 39924 ft 418 kts 240°
2026-05-07 00:14 45.73977 -64.98491 39923 ft 418 kts 240°
2026-05-07 00:14 45.71250 -65.05840 39922 ft 418 kts 240°
2026-05-07 00:15 45.68977 -65.11950 39928 ft 418 kts 240°
2026-05-07 00:15 45.65794 -65.20486 39924 ft 418 kts 240°
2026-05-07 00:16 45.63515 -65.26578 39925 ft 418 kts 240°
2026-05-07 00:16 45.60767 -65.33911 39925 ft 418 kts 240°
2026-05-07 00:17 45.58016 -65.41228 39925 ft 418 kts 240°
2026-05-07 00:17 45.55265 -65.48530 39926 ft 418 kts 240°
2026-05-07 00:18 45.52506 -65.55830 39925 ft 418 kts 240°
2026-05-07 00:18 45.49755 -65.63091 39933 ft 419 kts 240°
2026-05-07 00:19 45.46979 -65.70397 39937 ft 419 kts 240°
2026-05-07 00:19 45.44200 -65.77692 39939 ft 419 kts 240°
2026-05-07 00:20 45.41407 -65.85005 39943 ft 419 kts 240°
2026-05-07 00:20 45.38633 -65.92248 39939 ft 420 kts 240°
2026-05-07 00:21 45.35835 -65.99535 39943 ft 420 kts 240°
2026-05-07 00:21 45.33030 -66.06821 39941 ft 420 kts 240°
2026-05-07 00:22 45.30216 -66.14112 39940 ft 420 kts 240°
2026-05-07 00:22 45.27392 -66.21408 39927 ft 421 kts 240°
2026-05-07 00:23 45.24561 -66.28702 39920 ft 422 kts 240°
2026-05-07 00:23 45.21742 -66.35950 39912 ft 422 kts 240°
2026-05-07 00:24 45.18895 -66.43248 39900 ft 422 kts 240°
2026-05-07 00:24 45.16048 -66.50527 39900 ft 422 kts 240°
2026-05-07 00:25 45.13194 -66.57805 39889 ft 422 kts 240°
2026-05-07 00:25 45.10340 -66.65064 39903 ft 422 kts 240°
2026-05-07 00:26 45.07478 -66.72326 39889 ft 422 kts 240°
2026-05-07 00:26 45.04614 -66.79571 39889 ft 422 kts 240°
2026-05-07 00:27 45.01743 -66.86818 39892 ft 422 kts 240°
2026-05-07 00:27 44.98885 -66.94012 39871 ft 422 kts 240°
2026-05-07 00:28 44.95998 -67.01259 39880 ft 422 kts 240°
2026-05-07 00:28 44.93114 -67.08482 39875 ft 423 kts 240°
2026-05-07 00:29 44.90218 -67.15717 39877 ft 423 kts 240°
2026-05-07 00:30 44.84415 -67.30126 39872 ft 422 kts 241°
2026-05-07 00:30 44.81521 -67.37279 39872 ft 422 kts 241°
2026-05-07 00:31 44.78609 -67.44462 39891 ft 423 kts 240°
2026-05-07 00:31 44.75684 -67.51660 39872 ft 424 kts 240°
2026-05-07 00:32 44.72750 -67.58861 39873 ft 424 kts 240°
2026-05-07 00:32 44.69812 -67.66053 39870 ft 423 kts 241°
2026-05-07 00:33 44.66874 -67.73229 39867 ft 423 kts 241°
2026-05-07 00:33 44.63933 -67.80392 39865 ft 423 kts 241°
2026-05-07 00:34 44.60989 -67.87542 39864 ft 423 kts 240°
2026-05-07 00:34 44.58061 -67.94639 39857 ft 423 kts 240°
2026-05-07 00:35 44.55108 -68.01777 39850 ft 423 kts 240°
2026-05-07 00:35 44.52149 -68.08911 39848 ft 424 kts 240°
2026-05-07 00:36 44.49177 -68.16060 39842 ft 425 kts 240°
2026-05-07 00:36 44.46194 -68.23217 39841 ft 425 kts 240°
2026-05-07 00:37 44.43224 -68.30322 39841 ft 424 kts 240°
2026-05-07 00:37 44.40240 -68.37445 39841 ft 424 kts 240°
2026-05-07 00:38 44.37250 -68.44566 39834 ft 424 kts 240°
2026-05-07 00:38 44.34260 -68.51667 39831 ft 424 kts 240°
2026-05-07 00:39 44.31266 -68.58759 39823 ft 424 kts 241°
2026-05-07 00:39 44.28270 -68.65840 39846 ft 423 kts 241°
2026-05-07 00:40 44.25287 -68.72872 39820 ft 423 kts 241°
2026-05-07 00:40 44.22281 -68.79942 39815 ft 423 kts 240°
2026-05-07 00:41 44.19273 -68.87001 39816 ft 423 kts 240°
2026-05-07 00:41 44.16263 -68.94043 39811 ft 423 kts 241°
2026-05-07 00:42 44.13255 -69.01065 39812 ft 422 kts 241°
2026-05-07 00:42 44.10247 -69.08069 39813 ft 422 kts 241°
2026-05-07 00:43 44.07250 -69.15033 39814 ft 422 kts 240°
2026-05-07 00:43 44.04228 -69.22036 39788 ft 422 kts 241°
2026-05-07 00:44 44.01206 -69.29020 39812 ft 422 kts 241°
2026-05-07 00:44 43.98178 -69.36004 39810 ft 422 kts 241°
2026-05-07 00:45 43.95147 -69.42978 39806 ft 422 kts 241°
2026-05-07 00:45 43.92120 -69.49925 39807 ft 422 kts 240°
2026-05-07 00:46 43.89076 -69.56894 39800 ft 421 kts 241°
2026-05-07 00:46 43.86037 -69.63834 39804 ft 420 kts 241°
2026-05-07 00:47 43.83004 -69.70745 39805 ft 420 kts 241°
2026-05-07 00:47 43.79985 -69.77610 39805 ft 420 kts 241°
2026-05-07 00:48 43.76925 -69.84550 39812 ft 420 kts 241°
2026-05-07 00:48 43.73882 -69.91433 39801 ft 420 kts 241°
2026-05-07 00:49 43.70830 -69.98321 39801 ft 420 kts 241°
2026-05-07 00:49 43.67771 -70.05210 39778 ft 420 kts 241°
2026-05-07 00:50 43.64716 -70.12072 39778 ft 420 kts 241°
2026-05-07 00:50 43.61661 -70.18917 39771 ft 419 kts 241°
2026-05-07 00:51 43.58594 -70.25773 39785 ft 418 kts 241°
2026-05-07 00:51 43.55548 -70.32569 39778 ft 418 kts 241°
2026-05-07 00:52 43.52490 -70.39376 39811 ft 418 kts 241°
2026-05-07 00:52 43.49416 -70.46200 39776 ft 419 kts 241°
2026-05-07 00:53 43.46348 -70.52994 39771 ft 417 kts 241°
2026-05-07 00:53 43.43283 -70.59737 39765 ft 417 kts 240°
2026-05-07 00:54 43.39789 -70.66154 39767 ft 419 kts 236°
2026-05-07 00:54 43.36158 -70.72433 39767 ft 420 kts 235°
2026-05-07 00:55 43.32511 -70.78662 39762 ft 419 kts 236°
2026-05-07 00:55 43.28849 -70.84915 39755 ft 418 kts 236°
2026-05-07 00:56 43.25217 -70.91117 39762 ft 418 kts 236°
2026-05-07 00:56 43.21568 -70.97341 39756 ft 418 kts 236°
2026-05-07 00:57 43.17930 -71.03534 39760 ft 418 kts 236°
2026-05-07 00:57 43.14294 -71.09711 39767 ft 418 kts 236°
2026-05-07 00:58 43.10638 -71.15906 39773 ft 418 kts 236°
2026-05-07 00:58 43.06995 -71.22067 39781 ft 418 kts 236°
2026-05-07 00:59 43.01502 -71.31331 39758 ft 416 kts 236°
2026-05-07 01:00 42.97869 -71.37444 39767 ft 416 kts 236°
2026-05-07 01:00 42.94220 -71.43570 39750 ft 416 kts 236°
2026-05-07 01:01 42.90561 -71.49702 39753 ft 416 kts 236°
2026-05-07 01:01 42.86915 -71.55795 39804 ft 414 kts 236°
2026-05-07 01:02 42.83259 -71.61895 39790 ft 413 kts 236°
2026-05-07 01:02 42.79623 -71.67948 39790 ft 413 kts 236°
2026-05-07 01:03 42.75976 -71.74009 39791 ft 413 kts 236°
2026-05-07 01:03 42.72339 -71.80041 39792 ft 412 kts 236°
2026-05-07 01:04 42.69312 -71.85051 39798 ft 411 kts 236°
2026-05-07 01:04 42.65680 -71.91053 39813 ft 411 kts 236°
2026-05-07 01:05 42.62036 -71.97062 39795 ft 412 kts 236°
2026-05-07 01:05 42.58415 -72.03019 39784 ft 411 kts 236°
2026-05-07 01:06 42.54761 -72.09017 39795 ft 410 kts 236°
2026-05-07 01:06 42.51122 -72.14981 39796 ft 410 kts 236°
2026-05-07 01:07 42.47499 -72.20906 39812 ft 410 kts 236°
2026-05-07 01:07 42.43863 -72.26841 39785 ft 410 kts 236°
2026-05-07 01:08 42.40220 -72.32771 39807 ft 407 kts 237°
2026-05-07 01:08 42.36601 -72.38652 39780 ft 406 kts 237°
2026-05-07 01:09 42.32985 -72.44524 39781 ft 407 kts 237°
2026-05-07 01:09 42.29372 -72.50376 39776 ft 406 kts 237°
2026-05-07 01:10 42.25742 -72.56240 39773 ft 406 kts 237°
2026-05-07 01:10 42.22137 -72.62052 39783 ft 404 kts 237°
2026-05-07 01:11 42.18540 -72.67842 39822 ft 403 kts 237°
2026-05-07 01:11 42.14949 -72.73641 39823 ft 402 kts 238°
2026-05-07 01:12 42.11473 -72.79573 39807 ft 401 kts 239°
2026-05-07 01:12 42.08066 -72.85483 39823 ft 400 kts 239°
2026-05-07 01:13 42.04641 -72.91375 39818 ft 400 kts 239°
2026-05-07 01:13 42.01195 -72.97255 39812 ft 399 kts 238°
2026-05-07 01:14 41.97734 -73.03101 39814 ft 401 kts 237°
2026-05-07 01:14 41.93613 -73.08312 39811 ft 415 kts 226°
2026-05-07 01:15 41.88800 -73.12620 39825 ft 420 kts 223°
2026-05-07 01:15 41.83828 -73.16754 39827 ft 421 kts 222°
2026-05-07 01:16 41.78834 -73.20877 39823 ft 421 kts 222°
2026-05-07 01:16 41.73866 -73.25009 39825 ft 420 kts 223°
2026-05-07 01:17 41.68906 -73.29158 39828 ft 419 kts 223°
2026-05-07 01:17 41.64504 -73.33905 39824 ft 400 kts 236°
2026-05-07 01:18 41.60780 -73.39362 39823 ft 396 kts 237°
2026-05-07 01:18 41.57185 -73.44929 39825 ft 395 kts 238°
2026-05-07 01:19 41.53598 -73.50489 39825 ft 395 kts 238°
2026-05-07 01:19 41.50002 -73.56027 39822 ft 395 kts 237°
2026-05-07 01:20 41.46388 -73.61559 39835 ft 396 kts 237°
2026-05-07 01:20 41.42766 -73.67084 39831 ft 395 kts 238°
2026-05-07 01:21 41.39174 -73.72552 39833 ft 393 kts 238°
2026-05-07 01:21 41.35572 -73.78029 39832 ft 393 kts 238°
2026-05-07 01:22 41.31952 -73.83492 39832 ft 394 kts 237°
2026-05-07 01:22 41.28278 -73.88901 39833 ft 394 kts 237°
2026-05-07 01:23 41.24593 -73.94296 39827 ft 394 kts 237°
2026-05-07 01:23 41.20922 -73.99683 39835 ft 393 kts 237°
2026-05-07 01:24 41.17257 -74.05066 39834 ft 392 kts 237°
2026-05-07 01:24 41.13601 -74.10434 39840 ft 391 kts 237°
2026-05-07 01:25 41.10144 -74.15910 39840 ft 388 kts 240°
2026-05-07 01:25 41.06777 -74.21492 39844 ft 386 kts 240°
2026-05-07 01:26 41.03409 -74.27022 39847 ft 386 kts 240°
2026-05-07 01:26 41.00005 -74.32546 39849 ft 387 kts 240°
2026-05-07 01:27 40.96586 -74.38054 39861 ft 387 kts 239°
2026-05-07 01:27 40.93174 -74.43538 39850 ft 386 kts 240°
2026-05-07 01:28 40.89766 -74.49007 39866 ft 385 kts 240°
2026-05-07 01:28 40.86368 -74.54455 39848 ft 384 kts 240°
2026-05-07 01:29 40.82991 -74.59863 39863 ft 384 kts 240°
2026-05-07 01:29 40.79586 -74.65306 39844 ft 384 kts 240°
2026-05-07 01:30 40.76181 -74.70736 39856 ft 384 kts 240°
2026-05-07 01:30 40.72774 -74.76156 39845 ft 382 kts 240°
2026-05-07 01:31 40.69377 -74.81553 39854 ft 382 kts 240°
2026-05-07 01:31 40.66002 -74.86909 39849 ft 382 kts 240°
2026-05-07 01:32 40.62599 -74.92301 39846 ft 382 kts 240°
2026-05-07 01:32 40.59189 -74.97691 39848 ft 382 kts 240°
2026-05-07 01:33 40.55784 -75.03063 39842 ft 382 kts 240°
2026-05-07 01:33 40.52405 -75.08428 39857 ft 380 kts 240°
2026-05-07 01:34 40.49066 -75.13733 39881 ft 379 kts 240°
2026-05-07 01:34 40.45710 -75.19054 39884 ft 378 kts 240°
2026-05-07 01:35 40.42346 -75.24376 39887 ft 378 kts 240°
2026-05-07 01:35 40.38977 -75.29696 39870 ft 378 kts 240°
2026-05-07 01:36 40.35643 -75.34950 39890 ft 378 kts 240°
2026-05-07 01:36 40.32288 -75.40231 39884 ft 377 kts 240°
2026-05-07 01:37 40.28925 -75.45514 39889 ft 377 kts 240°
2026-05-07 01:37 40.25572 -75.50771 39887 ft 376 kts 240°
2026-05-07 01:38 40.22283 -75.56072 39871 ft 371 kts 244°
2026-05-07 01:38 40.19389 -75.61626 39888 ft 369 kts 245°
2026-05-07 01:39 40.16571 -75.67230 39886 ft 368 kts 245°
2026-05-07 01:39 40.13767 -75.72833 39882 ft 368 kts 245°
2026-05-07 01:40 40.10955 -75.78426 39894 ft 368 kts 245°
2026-05-07 01:40 40.08139 -75.84011 39879 ft 368 kts 245°
2026-05-07 01:41 40.05339 -75.89543 39903 ft 367 kts 245°
2026-05-07 01:41 40.02513 -75.95107 39871 ft 369 kts 246°
2026-05-07 01:42 39.99670 -76.00703 39874 ft 370 kts 245°
2026-05-07 01:42 39.96821 -76.06299 39871 ft 370 kts 245°
2026-05-07 01:43 39.93973 -76.11894 39879 ft 370 kts 245°
2026-05-07 01:43 39.91117 -76.17482 39879 ft 369 kts 245°
2026-05-07 01:44 39.88280 -76.23032 39882 ft 367 kts 245°
2026-05-07 01:44 39.85455 -76.28534 39880 ft 367 kts 245°
2026-05-07 01:45 39.82613 -76.34068 39883 ft 367 kts 245°
2026-05-07 01:45 39.79772 -76.39590 39888 ft 367 kts 245°
2026-05-07 01:46 39.76944 -76.45078 39887 ft 368 kts 245°
2026-05-07 01:46 39.74096 -76.50598 39903 ft 367 kts 245°
2026-05-07 01:47 39.71250 -76.56097 39892 ft 366 kts 245°
2026-05-07 01:47 39.68890 -76.60651 39873 ft 365 kts 245°
2026-05-07 01:48 39.67935 -76.62492 39889 ft 366 kts 245°
2026-05-07 01:48 39.65791 -76.66629 39897 ft 367 kts 245°
2026-05-07 01:49 39.62949 -76.72103 39893 ft 368 kts 245°
2026-05-07 01:49 39.60083 -76.77604 39895 ft 368 kts 245°
2026-05-07 01:50 39.57216 -76.83102 39898 ft 368 kts 245°
2026-05-07 01:51 39.51908 -76.93252 39916 ft 365 kts 244°
2026-05-07 01:51 39.48691 -76.98451 39916 ft 380 kts 237°
2026-05-07 01:52 39.44671 -77.03054 39918 ft 389 kts 232°
2026-05-07 01:52 39.40456 -77.07474 39917 ft 391 kts 231°
2026-05-07 01:53 39.36213 -77.11869 39926 ft 391 kts 232°
2026-05-07 01:53 39.31984 -77.16277 39926 ft 390 kts 232°
2026-05-07 01:54 39.27765 -77.20694 39926 ft 391 kts 232°
2026-05-07 01:54 39.23530 -77.25129 39927 ft 391 kts 232°
2026-05-07 01:55 39.19304 -77.29540 39924 ft 390 kts 232°
2026-05-07 01:55 39.15081 -77.33945 39923 ft 390 kts 232°
2026-05-07 01:56 39.10875 -77.38329 39883 ft 391 kts 232°
2026-05-07 01:56 39.06596 -77.42777 39923 ft 393 kts 232°
2026-05-07 01:57 39.02367 -77.47165 39898 ft 393 kts 232°
2026-05-07 01:57 38.98098 -77.51587 39897 ft 393 kts 232°
2026-05-07 01:58 38.93861 -77.55970 39897 ft 393 kts 232°
2026-05-07 01:58 38.89598 -77.60373 39890 ft 394 kts 231°
2026-05-07 01:59 38.85335 -77.64767 39889 ft 392 kts 231°
2026-05-07 01:59 38.81079 -77.69149 39897 ft 392 kts 231°
2026-05-07 02:00 38.76826 -77.73522 39924 ft 391 kts 231°
2026-05-07 02:00 38.72585 -77.77875 39892 ft 391 kts 232°
2026-05-07 02:01 38.68332 -77.82238 39873 ft 393 kts 232°
2026-05-07 02:01 38.64267 -77.86762 39886 ft 383 kts 238°
2026-05-07 02:02 38.60923 -77.91933 39888 ft 375 kts 243°
2026-05-07 02:02 38.57791 -77.97247 39891 ft 373 kts 243°
2026-05-07 02:03 38.54702 -78.02557 39885 ft 372 kts 243°
2026-05-07 02:03 38.51607 -78.07846 39879 ft 371 kts 243°
2026-05-07 02:04 38.48500 -78.13124 39873 ft 373 kts 243°
2026-05-07 02:04 38.45393 -78.18385 39869 ft 373 kts 243°
2026-05-07 02:05 38.42264 -78.23672 39873 ft 373 kts 243°
2026-05-07 02:05 38.39140 -78.28942 39867 ft 373 kts 243°
2026-05-07 02:06 38.36001 -78.34230 39870 ft 373 kts 243°
2026-05-07 02:06 38.32866 -78.39508 39872 ft 374 kts 243°
2026-05-07 02:07 38.29718 -78.44796 39868 ft 374 kts 243°
2026-05-07 02:07 38.25017 -78.52673 39877 ft 374 kts 243°
2026-05-07 02:08 38.21846 -78.57975 39877 ft 375 kts 243°
2026-05-07 02:08 38.18701 -78.63229 39878 ft 375 kts 243°
2026-05-07 02:09 38.15529 -78.68518 39879 ft 376 kts 242°
2026-05-07 02:09 38.12365 -78.73780 39875 ft 373 kts 243°
2026-05-07 02:10 38.09208 -78.79024 39900 ft 373 kts 243°
2026-05-07 02:10 38.06063 -78.84244 39898 ft 373 kts 243°
2026-05-07 02:11 38.02905 -78.89479 39898 ft 374 kts 243°
2026-05-07 02:11 37.99739 -78.94714 39896 ft 374 kts 242°
2026-05-07 02:12 37.96585 -78.99918 39887 ft 373 kts 242°
2026-05-07 02:12 37.93418 -79.05141 39899 ft 373 kts 242°
2026-05-07 02:13 37.90256 -79.10348 39935 ft 371 kts 242°
2026-05-07 02:13 37.86861 -79.15321 39969 ft 378 kts 238°
2026-05-07 02:14 37.83272 -79.20196 40000 ft 378 kts 238°
2026-05-07 02:14 37.79719 -79.25089 40024 ft 378 kts 238°
2026-05-07 02:15 37.76183 -79.29988 40035 ft 376 kts 238°
2026-05-07 02:15 37.72653 -79.34878 40043 ft 376 kts 238°
2026-05-07 02:16 37.69126 -79.39764 40032 ft 377 kts 239°
2026-05-07 02:16 37.65585 -79.44661 40022 ft 376 kts 238°
2026-05-07 02:17 37.62076 -79.49505 39998 ft 376 kts 238°
2026-05-07 02:17 37.58550 -79.54358 39969 ft 374 kts 238°
2026-05-07 02:18 37.55031 -79.59201 39942 ft 374 kts 238°
2026-05-07 02:18 37.51510 -79.64041 39911 ft 375 kts 238°
2026-05-07 02:19 37.47986 -79.68888 39918 ft 375 kts 238°
2026-05-07 02:19 37.44454 -79.73723 39932 ft 375 kts 238°
2026-05-07 02:20 37.40908 -79.78560 39936 ft 375 kts 238°
2026-05-07 02:20 37.37383 -79.83379 39948 ft 374 kts 238°
2026-05-07 02:21 37.33881 -79.88157 39952 ft 373 kts 238°
2026-05-07 02:21 37.30353 -79.92963 39952 ft 373 kts 238°
2026-05-07 02:22 37.26824 -79.97765 39950 ft 375 kts 238°
2026-05-07 02:22 37.23294 -80.02560 39939 ft 377 kts 238°
2026-05-07 02:23 37.19727 -80.07393 39957 ft 377 kts 238°
2026-05-07 02:23 37.16161 -80.12219 39972 ft 377 kts 238°
2026-05-07 02:24 37.12596 -80.17039 39988 ft 377 kts 238°
2026-05-07 02:24 37.09032 -80.21845 39990 ft 375 kts 238°
2026-05-07 02:25 37.05483 -80.26630 40001 ft 376 kts 238°
2026-05-07 02:25 37.01936 -80.31407 39987 ft 377 kts 238°
2026-05-07 02:26 36.98284 -80.36151 39979 ft 379 kts 237°
2026-05-07 02:26 36.94585 -80.40863 39962 ft 379 kts 237°
2026-05-07 02:27 36.90888 -80.45574 39947 ft 379 kts 237°
2026-05-07 02:27 36.87207 -80.50256 39930 ft 379 kts 237°
2026-05-07 02:28 36.83491 -80.54937 39943 ft 381 kts 237°
2026-05-07 02:28 36.79772 -80.59619 39918 ft 379 kts 237°
2026-05-07 02:29 36.76063 -80.64289 39994 ft 379 kts 237°
2026-05-07 02:29 36.72353 -80.68956 40004 ft 379 kts 237°
2026-05-07 02:30 36.68641 -80.73617 40005 ft 379 kts 237°
2026-05-07 02:30 36.64890 -80.78326 39996 ft 387 kts 236°
2026-05-07 02:31 36.61065 -80.83116 39981 ft 392 kts 236°
2026-05-07 02:31 36.57219 -80.87925 39975 ft 396 kts 236°
2026-05-07 02:32 36.53318 -80.92787 39924 ft 395 kts 236°
2026-05-07 02:32 36.50097 -80.96796 39952 ft 394 kts 236°
2026-05-07 02:33 36.46223 -81.01621 39974 ft 394 kts 236°
2026-05-07 02:33 36.42347 -81.06440 39998 ft 394 kts 236°
2026-05-07 02:34 36.38469 -81.11256 40011 ft 395 kts 236°
2026-05-07 02:34 36.34576 -81.16081 40030 ft 396 kts 236°
2026-05-07 02:35 36.30672 -81.20910 40029 ft 396 kts 236°
2026-05-07 02:35 36.26789 -81.25706 40026 ft 396 kts 236°
2026-05-07 02:36 36.22883 -81.30523 40008 ft 395 kts 236°
2026-05-07 02:36 36.18991 -81.35317 39995 ft 394 kts 236°
2026-05-07 02:37 36.15096 -81.40111 39978 ft 395 kts 236°
2026-05-07 02:37 36.11188 -81.44914 39950 ft 397 kts 236°
2026-05-07 02:38 36.07293 -81.49689 39930 ft 396 kts 236°
2026-05-07 02:38 36.03380 -81.54486 39929 ft 396 kts 236°
2026-05-07 02:39 35.99466 -81.59275 39925 ft 395 kts 236°
2026-05-07 02:39 35.95556 -81.64047 39903 ft 395 kts 236°
2026-05-07 02:40 35.91645 -81.68812 39930 ft 395 kts 235°
2026-05-07 02:40 35.87735 -81.73568 39929 ft 394 kts 235°
2026-05-07 02:41 35.85783 -81.75943 40043 ft 394 kts 235°
2026-05-07 02:41 35.83855 -81.78286 40032 ft 394 kts 235°
2026-05-07 02:41 35.79949 -81.83027 40017 ft 394 kts 235°
2026-05-07 02:42 35.78008 -81.85376 39796 ft 387 kts 235°
2026-05-07 02:42 35.76083 -81.87704 39012 ft 388 kts 235°
2026-05-07 02:42 35.74152 -81.90050 38029 ft 391 kts 235°
2026-05-07 02:42 35.72203 -81.92415 36944 ft 396 kts 234°
2026-05-07 02:43 35.70231 -81.94804 35988 ft 399 kts 233°
2026-05-07 02:43 35.68265 -81.97181 35360 ft 403 kts 233°
2026-05-07 02:43 35.66251 -81.99615 35064 ft 408 kts 233°
2026-05-07 02:43 35.64220 -82.02064 35008 ft 410 kts 233°
2026-05-07 02:44 35.60142 -82.06972 35003 ft 410 kts 232°
2026-05-07 02:44 35.56059 -82.11878 35008 ft 410 kts 233°
2026-05-07 02:45 35.51980 -82.16774 35007 ft 410 kts 233°
2026-05-07 02:45 35.47900 -82.21674 34983 ft 412 kts 232°
2026-05-07 02:46 35.43812 -82.26572 34976 ft 414 kts 233°
2026-05-07 02:46 35.39682 -82.31506 34961 ft 415 kts 232°
2026-05-07 02:47 35.35545 -82.36442 34938 ft 415 kts 232°
2026-05-07 02:47 35.31412 -82.41372 34936 ft 413 kts 232°
2026-05-07 02:48 35.27308 -82.46258 34942 ft 410 kts 232°
2026-05-07 02:48 35.23189 -82.51164 34983 ft 418 kts 232°
2026-05-07 02:49 35.18987 -82.56153 34975 ft 421 kts 232°
2026-05-07 02:49 35.14777 -82.61137 34947 ft 421 kts 232°
2026-05-07 02:50 35.10560 -82.66126 34952 ft 421 kts 231°
2026-05-07 02:50 35.06378 -82.71061 34824 ft 413 kts 231°
2026-05-07 02:51 35.04321 -82.73481 34062 ft 411 kts 231°
2026-05-07 02:51 35.02242 -82.75942 32528 ft 424 kts 230°
2026-05-07 02:51 35.00072 -82.78520 30541 ft 449 kts 229°
2026-05-07 02:51 34.97789 -82.81215 28984 ft 460 kts 229°
2026-05-07 02:52 34.95490 -82.83911 27949 ft 451 kts 229°
2026-05-07 02:52 34.93279 -82.86494 27069 ft 443 kts 229°
2026-05-07 02:52 34.91070 -82.89083 26225 ft 439 kts 229°
2026-05-07 02:52 34.88882 -82.91650 25387 ft 435 kts 229°
2026-05-07 02:53 34.86713 -82.94195 24583 ft 430 kts 229°
2026-05-07 02:53 34.84566 -82.96712 23859 ft 426 kts 228°
2026-05-07 02:53 34.82434 -82.99209 23123 ft 423 kts 228°
2026-05-07 02:53 34.80321 -83.01682 22333 ft 419 kts 228°
2026-05-07 02:54 34.78225 -83.04134 21565 ft 418 kts 228°
2026-05-07 02:54 34.76124 -83.06592 20822 ft 418 kts 227°
2026-05-07 02:54 34.74030 -83.09038 20093 ft 416 kts 227°
2026-05-07 02:54 34.71955 -83.11459 19482 ft 411 kts 227°
2026-05-07 02:55 34.69926 -83.13825 18937 ft 407 kts 227°
2026-05-07 02:55 34.67919 -83.16159 18279 ft 390 kts 227°
2026-05-07 02:55 34.65996 -83.18389 17267 ft 374 kts 227°
2026-05-07 02:55 34.64141 -83.20547 16184 ft 364 kts 227°
2026-05-07 02:56 34.62337 -83.22647 15103 ft 355 kts 226°
2026-05-07 02:56 34.60573 -83.24700 14055 ft 346 kts 226°
2026-05-07 02:56 34.58853 -83.26699 13041 ft 336 kts 226°
2026-05-07 02:56 34.57207 -83.28607 12404 ft 317 kts 226°
2026-05-07 02:57 34.55670 -83.30386 11993 ft 294 kts 226°
2026-05-07 02:57 34.54246 -83.32034 11650 ft 272 kts 227°
2026-05-07 02:57 34.52928 -83.33560 11675 ft 256 kts 227°
2026-05-07 02:57 34.51645 -83.35053 11722 ft 263 kts 227°
2026-05-07 02:58 34.50310 -83.36608 11833 ft 269 kts 227°
2026-05-07 02:58 34.48940 -83.38199 11934 ft 275 kts 227°
2026-05-07 02:58 34.47542 -83.39819 11995 ft 281 kts 227°
2026-05-07 02:58 34.46109 -83.41478 11990 ft 288 kts 227°
2026-05-07 02:59 34.44609 -83.43213 11944 ft 307 kts 227°
2026-05-07 02:59 34.43036 -83.45031 11965 ft 314 kts 227°
2026-05-07 02:59 34.41448 -83.46862 11968 ft 316 kts 227°
2026-05-07 02:59 34.39854 -83.48699 11976 ft 316 kts 227°
2026-05-07 03:00 34.38280 -83.50514 11979 ft 316 kts 227°
2026-05-07 03:00 34.36680 -83.52353 11988 ft 317 kts 227°
2026-05-07 03:00 34.35079 -83.54193 11996 ft 317 kts 227°
2026-05-07 03:00 34.33483 -83.56034 11999 ft 317 kts 227°
2026-05-07 03:01 34.31882 -83.57879 11984 ft 319 kts 227°
2026-05-07 03:01 34.30269 -83.59734 11989 ft 321 kts 226°
2026-05-07 03:01 34.28640 -83.61607 12003 ft 321 kts 226°
2026-05-07 03:01 34.27038 -83.63445 12008 ft 321 kts 226°
2026-05-07 03:02 34.25415 -83.65304 12009 ft 321 kts 226°
2026-05-07 03:02 34.23799 -83.67167 12011 ft 321 kts 227°
2026-05-07 03:02 34.22222 -83.68972 11999 ft 296 kts 226°
2026-05-07 03:02 34.20791 -83.70596 12026 ft 274 kts 227°
2026-05-07 03:03 34.19421 -83.72163 12029 ft 269 kts 227°
2026-05-07 03:03 34.18065 -83.73715 12031 ft 269 kts 227°
2026-05-07 03:03 34.16708 -83.75271 12033 ft 268 kts 227°
2026-05-07 03:03 34.15354 -83.76825 12026 ft 268 kts 227°
2026-05-07 03:04 34.14001 -83.78375 12027 ft 268 kts 227°
2026-05-07 03:04 34.12647 -83.79922 12022 ft 268 kts 227°
2026-05-07 03:04 34.11293 -83.81470 12016 ft 268 kts 227°
2026-05-07 03:04 34.09940 -83.83015 11996 ft 268 kts 227°
2026-05-07 03:05 34.08578 -83.84552 11994 ft 268 kts 226°
2026-05-07 03:05 34.07199 -83.86031 11936 ft 268 kts 225°
2026-05-07 03:05 34.05798 -83.87518 11689 ft 267 kts 225°
2026-05-07 03:05 34.04415 -83.88989 11472 ft 264 kts 225°
2026-05-07 03:06 34.03039 -83.90458 11292 ft 263 kts 225°
2026-05-07 03:06 34.01671 -83.91920 11010 ft 262 kts 225°
2026-05-07 03:06 34.00304 -83.93383 10675 ft 262 kts 225°
2026-05-07 03:06 33.98940 -83.94840 10339 ft 261 kts 224°
2026-05-07 03:07 33.97463 -83.96115 9911 ft 265 kts 212°
2026-05-07 03:07 33.95660 -83.96744 9276 ft 278 kts 191°
2026-05-07 03:07 33.93728 -83.96770 8648 ft 281 kts 184°
2026-05-07 03:07 33.91808 -83.96662 8185 ft 269 kts 184°
2026-05-07 03:08 33.89956 -83.96556 8021 ft 267 kts 184°
2026-05-07 03:08 33.88096 -83.96462 8009 ft 267 kts 184°
2026-05-07 03:08 33.86239 -83.96376 8009 ft 266 kts 184°
2026-05-07 03:08 33.84434 -83.96624 7872 ft 257 kts 204°
2026-05-07 03:09 33.82833 -83.97520 7452 ft 251 kts 213°
2026-05-07 03:09 33.81327 -83.98573 6971 ft 250 kts 214°
2026-05-07 03:09 33.79840 -83.99638 6490 ft 249 kts 214°
2026-05-07 03:09 33.78357 -84.00702 5984 ft 245 kts 214°
2026-05-07 03:10 33.76931 -84.01749 5497 ft 235 kts 214°
2026-05-07 03:10 33.75572 -84.02762 5007 ft 226 kts 214°
2026-05-07 03:10 33.74265 -84.03765 4496 ft 219 kts 214°
2026-05-07 03:10 33.73011 -84.04754 4087 ft 212 kts 214°
2026-05-07 03:11 33.71790 -84.05745 3963 ft 213 kts 216°
2026-05-07 03:11 33.70766 -84.07028 3967 ft 214 kts 231°
2026-05-07 03:11 33.69915 -84.08501 3962 ft 214 kts 234°
2026-05-07 03:11 33.69101 -84.09971 3958 ft 214 kts 234°
2026-05-07 03:12 33.68287 -84.11453 3956 ft 207 kts 234°
2026-05-07 03:12 33.67527 -84.12829 3961 ft 189 kts 234°
2026-05-07 03:12 33.66830 -84.14092 3964 ft 178 kts 234°
2026-05-07 03:12 33.66154 -84.15336 3956 ft 178 kts 234°
2026-05-07 03:13 33.65490 -84.16575 3894 ft 176 kts 234°
2026-05-07 03:13 33.65043 -84.17959 3883 ft 177 kts 254°
2026-05-07 03:13 33.64962 -84.19383 3896 ft 169 kts 263°
2026-05-07 03:13 33.64961 -84.20790 3900 ft 168 kts 263°
2026-05-07 03:14 33.64962 -84.22195 3900 ft 167 kts 262°
2026-05-07 03:14 33.64957 -84.23584 3774 ft 165 kts 262°
2026-05-07 03:14 33.64954 -84.26348 3343 ft 167 kts 262°
2026-05-07 03:15 33.64954 -84.27734 3115 ft 165 kts 262°
2026-05-07 03:15 33.64954 -84.29106 2908 ft 162 kts 262°
2026-05-07 03:15 33.64954 -84.30430 2701 ft 156 kts 261°
2026-05-07 03:15 33.64954 -84.31690 2504 ft 150 kts 261°
2026-05-07 03:16 33.64954 -84.32922 2320 ft 146 kts 261°
2026-05-07 03:16 33.64955 -84.34109 2128 ft 137 kts 261°
2026-05-07 03:16 33.64954 -84.35215 1954 ft 128 kts 263°
2026-05-07 03:16 33.64957 -84.36245 1793 ft 121 kts 260°
2026-05-07 03:17 33.64952 -84.37273 1646 ft 125 kts 264°
2026-05-07 03:17 33.64937 -84.38335 1438 ft 136 kts 265°
2026-05-07 03:17 33.64961 -84.39498 1252 ft 140 kts 267°
2026-05-07 03:17 33.64957 -84.40657 1087 ft 136 kts 265°
2026-05-07 03:18 33.64952 -84.41721 1013 ft 111 kts 270°
2026-05-07 03:18 33.64955 -84.42471 1013 ft 68 kts 270°
2026-05-07 03:18 33.64955 -84.42866 1012 ft 25 kts 269°
2026-05-07 03:18 33.64953 -84.42993 1012 ft 22 kts 266°
2026-05-07 03:19 33.64912 -84.43212 1013 ft 26 kts 246°
2026-05-07 03:19 33.64836 -84.43309 1013 ft 13 kts 181°
2026-05-07 03:19 33.64794 -84.43233 1013 ft 12 kts 97°
2026-05-07 03:19 33.64780 -84.43173 1013 ft 7 kts 120°
2026-05-07 03:20 33.64733 -84.43139 1014 ft 12 kts 165°
2026-05-07 03:20 33.64656 -84.43163 1014 ft 12 kts 223°
2026-05-07 03:20 33.64576 -84.43254 1014 ft 19 kts 182°